BAW243 EGLL-MMMX

Flight info

Callsign BAW243
Flight time 10h 22m
Altitude 36000
Route ULTIB1J ULTIB T420 TNT UL28 PENIL M144 BAGSO DCT RINUS DCT MALOT/M085F360 DCT 54N020W 54N030W 54N040W 53N050W DCT RIKAL/N0496F360 DCT YBC/N0483F380 DCT YEE DCT CRL DCT BWG DCT MEI/N0482F400 DCT TBD M345 AXEXO UM345 PAZ UT154 ENAGA ENAGA3A
Aircraft B78X/H-SADE1E2E3FGHIJ3J4J5J6LM1M2OP2RWXYZ/LB1D1G1

Departure

Time 2026-05-05 03:37
Airport London Heathrow Airport (EGLL)

Arrival

Time 2026-05-05 14:00
Airport Mexico City Benito Juárez International Airport (MMMX)
Time Latitude Longitude Altitude Speed Heading
2026-05-05 03:29 51.46915 -0.48234 95 ft 0 kts 89°
2026-05-05 03:32 51.46915 -0.48257 92 ft 3 kts 89°
2026-05-05 03:32 51.46916 -0.48287 92 ft 3 kts 85°
2026-05-05 03:32 51.46912 -0.48318 92 ft 3 kts 86°
2026-05-05 03:33 51.46913 -0.48350 92 ft 3 kts 109°
2026-05-05 03:33 51.46921 -0.48379 91 ft 3 kts 131°
2026-05-05 03:33 51.46929 -0.48395 90 ft 0 kts 152°
2026-05-05 03:34 51.46926 -0.48393 90 ft 2 kts 152°
2026-05-05 03:34 51.46912 -0.48385 93 ft 3 kts 165°
2026-05-05 03:34 51.46891 -0.48402 94 ft 4 kts 221°
2026-05-05 03:34 51.46860 -0.48448 92 ft 6 kts 212°
2026-05-05 03:35 51.46827 -0.48463 95 ft 4 kts 188°
2026-05-05 03:35 51.46788 -0.48467 92 ft 8 kts 181°
2026-05-05 03:35 51.46718 -0.48469 92 ft 13 kts 180°
2026-05-05 03:35 51.46611 -0.48467 92 ft 18 kts 179°
2026-05-05 03:36 51.46495 -0.48425 95 ft 16 kts 124°
2026-05-05 03:36 51.46480 -0.48195 94 ft 32 kts 89°
2026-05-05 03:36 51.46482 -0.47534 94 ft 90 kts 90°
2026-05-05 03:36 51.46487 -0.46194 97 ft 148 kts 89°
2026-05-05 03:37 51.46485 -0.44328 241 ft 178 kts 95°
2026-05-05 03:37 51.46519 -0.42275 612 ft 194 kts 82°
2026-05-05 03:37 51.47127 -0.40327 1018 ft 200 kts 45°
2026-05-05 03:37 51.48045 -0.38714 1816 ft 196 kts 49°
2026-05-05 03:38 51.48952 -0.36950 2373 ft 215 kts 49°
2026-05-05 03:38 51.49953 -0.35025 2937 ft 235 kts 48°
2026-05-05 03:38 51.51188 -0.33204 3597 ft 247 kts 20°
2026-05-05 03:38 51.52866 -0.32622 4552 ft 250 kts
2026-05-05 03:39 51.54619 -0.32202 5449 ft 259 kts
2026-05-05 03:39 51.56422 -0.31609 5938 ft 266 kts 12°
2026-05-05 03:39 51.58208 -0.30876 6199 ft 271 kts 13°
2026-05-05 03:39 51.60047 -0.30138 6989 ft 274 kts 12°
2026-05-05 03:40 51.61914 -0.29430 7959 ft 278 kts 12°
2026-05-05 03:40 51.63817 -0.28712 8889 ft 284 kts 12°
2026-05-05 03:40 51.65774 -0.28405 9771 ft 286 kts 349°
2026-05-05 03:40 51.67648 -0.29470 10588 ft 289 kts 328°
2026-05-05 03:41 51.69398 -0.31172 11271 ft 299 kts 329°
2026-05-05 03:41 51.71247 -0.32936 11711 ft 319 kts 329°
2026-05-05 03:41 51.73141 -0.34976 12112 ft 337 kts 314°
2026-05-05 03:41 51.74562 -0.38029 12837 ft 344 kts 301°
2026-05-05 03:42 51.75729 -0.41385 13605 ft 351 kts 299°
2026-05-05 03:42 51.76965 -0.44823 14356 ft 356 kts 302°
2026-05-05 03:42 51.78368 -0.48130 15067 ft 362 kts 306°
2026-05-05 03:42 51.79841 -0.51473 15793 ft 367 kts 303°
2026-05-05 03:43 51.80939 -0.55206 16527 ft 370 kts 288°
2026-05-05 03:43 51.81652 -0.59204 17322 ft 372 kts 283°
2026-05-05 03:43 51.82311 -0.63285 18067 ft 377 kts 285°
2026-05-05 03:43 51.83122 -0.67347 18724 ft 381 kts 289°
2026-05-05 03:44 51.84033 -0.71341 19364 ft 385 kts 289°
2026-05-05 03:44 51.84913 -0.75444 20017 ft 388 kts 287°
2026-05-05 03:44 51.85745 -0.79610 20659 ft 391 kts 287°
2026-05-05 03:44 51.86595 -0.83806 21294 ft 394 kts 287°
2026-05-05 03:45 51.87478 -0.88028 21917 ft 397 kts 287°
2026-05-05 03:45 51.88364 -0.92282 22534 ft 400 kts 287°
2026-05-05 03:45 51.89244 -0.96581 23133 ft 403 kts 287°
2026-05-05 03:45 51.90100 -1.00779 23695 ft 405 kts 287°
2026-05-05 03:46 51.90979 -1.05072 24183 ft 408 kts 287°
2026-05-05 03:46 51.91877 -1.09455 24651 ft 411 kts 287°
2026-05-05 03:46 51.92775 -1.13860 25120 ft 413 kts 287°
2026-05-05 03:46 51.93677 -1.18303 25586 ft 415 kts 287°
2026-05-05 03:47 51.94582 -1.22767 26035 ft 418 kts 286°
2026-05-05 03:47 51.95493 -1.27265 26483 ft 420 kts 286°
2026-05-05 03:47 51.96405 -1.31782 26934 ft 423 kts 286°
2026-05-05 03:47 51.97320 -1.36327 27376 ft 425 kts 286°
2026-05-05 03:48 51.98239 -1.40902 27801 ft 428 kts 286°
2026-05-05 03:48 51.99150 -1.45446 28215 ft 430 kts 286°
2026-05-05 03:48 52.00076 -1.50074 28627 ft 432 kts 286°
2026-05-05 03:48 52.01005 -1.54728 29024 ft 435 kts 286°
2026-05-05 03:49 52.01940 -1.59426 29423 ft 437 kts 286°
2026-05-05 03:49 52.02877 -1.64142 29816 ft 440 kts 286°
2026-05-05 03:49 52.03815 -1.68887 30172 ft 443 kts 287°
2026-05-05 03:49 52.04762 -1.73673 30455 ft 446 kts 287°
2026-05-05 03:50 52.05712 -1.78487 30766 ft 449 kts 287°
2026-05-05 03:50 52.06668 -1.83349 31041 ft 452 kts 287°
2026-05-05 03:50 52.07626 -1.88233 31331 ft 455 kts 287°
2026-05-05 03:50 52.08587 -1.93147 31615 ft 458 kts 287°
2026-05-05 03:51 52.09552 -1.98091 31900 ft 461 kts 287°
2026-05-05 03:51 52.10523 -2.03079 32161 ft 464 kts 287°
2026-05-05 03:51 52.11487 -2.08043 32425 ft 467 kts 287°
2026-05-05 03:51 52.12478 -2.13163 32702 ft 470 kts 287°
2026-05-05 03:52 52.13448 -2.18187 32979 ft 472 kts 287°
2026-05-05 03:52 52.14433 -2.23304 33238 ft 475 kts 287°
2026-05-05 03:52 52.15423 -2.28456 33497 ft 478 kts 287°
2026-05-05 03:52 52.16414 -2.33629 33771 ft 480 kts 287°
2026-05-05 03:53 52.17409 -2.38840 34030 ft 483 kts 287°
2026-05-05 03:53 52.18407 -2.44078 34252 ft 485 kts 287°
2026-05-05 03:53 52.19408 -2.49352 34473 ft 488 kts 288°
2026-05-05 03:53 52.20412 -2.54650 34676 ft 490 kts 287°
2026-05-05 03:54 52.21419 -2.59975 34903 ft 492 kts 287°
2026-05-05 03:54 52.22426 -2.65320 35223 ft 492 kts 287°
2026-05-05 03:54 52.23415 -2.70592 35546 ft 491 kts 287°
2026-05-05 03:54 52.24415 -2.75927 35872 ft 490 kts 287°
2026-05-05 03:55 52.25412 -2.81267 36031 ft 494 kts 287°
2026-05-05 03:55 52.26419 -2.86672 36035 ft 500 kts 287°
2026-05-05 03:55 52.28107 -2.95770 36043 ft 504 kts 287°
2026-05-05 03:56 52.30133 -3.06757 36043 ft 505 kts 287°
2026-05-05 03:56 52.32154 -3.17774 36052 ft 505 kts 287°
2026-05-05 03:57 52.34163 -3.28793 36055 ft 505 kts 287°
2026-05-05 03:57 52.36159 -3.39810 36056 ft 505 kts 287°
2026-05-05 03:58 52.38133 -3.50771 36054 ft 505 kts 287°
2026-05-05 03:58 52.40110 -3.61813 36054 ft 505 kts 287°
2026-05-05 03:59 52.42096 -3.72974 36062 ft 516 kts 287°
2026-05-05 03:59 52.44099 -3.84302 36060 ft 517 kts 287°
2026-05-05 04:00 52.46090 -3.95634 36059 ft 517 kts 287°
2026-05-05 04:00 52.48041 -4.06809 36056 ft 512 kts 287°
2026-05-05 04:01 52.49995 -4.18067 36059 ft 512 kts 287°
2026-05-05 04:01 52.51938 -4.29337 36058 ft 513 kts 287°
2026-05-05 04:02 52.53874 -4.40642 36059 ft 513 kts 287°
2026-05-05 04:02 52.55797 -4.51943 36056 ft 512 kts 287°
2026-05-05 04:03 52.57691 -4.63141 36062 ft 511 kts 287°
2026-05-05 04:03 52.59586 -4.74418 36062 ft 511 kts 286°
2026-05-05 04:04 52.61471 -4.85711 36068 ft 511 kts 286°
2026-05-05 04:04 52.63331 -4.96932 36068 ft 511 kts 286°
2026-05-05 04:05 52.65190 -5.08214 36064 ft 508 kts 286°
2026-05-05 04:05 52.67023 -5.19412 36065 ft 504 kts 286°
2026-05-05 04:06 52.68841 -5.30601 36067 ft 505 kts 286°
2026-05-05 04:06 52.70649 -5.41794 36067 ft 505 kts 286°
2026-05-05 04:07 52.72446 -5.53000 36067 ft 505 kts 285°
2026-05-05 04:07 52.74233 -5.64211 36071 ft 505 kts 285°
2026-05-05 04:08 52.75999 -5.75366 36069 ft 505 kts 285°
2026-05-05 04:08 52.77766 -5.86607 36073 ft 506 kts 285°
2026-05-05 04:09 52.79525 -5.97872 36074 ft 506 kts 285°
2026-05-05 04:09 52.81273 -6.09145 36068 ft 505 kts 285°
2026-05-05 04:10 52.83007 -6.20411 36068 ft 505 kts 285°
2026-05-05 04:10 52.84719 -6.31600 36073 ft 503 kts 285°
2026-05-05 04:11 52.86417 -6.42784 36073 ft 502 kts 284°
2026-05-05 04:11 52.88107 -6.53992 36082 ft 501 kts 284°
2026-05-05 04:12 52.89790 -6.65228 36081 ft 502 kts 284°
2026-05-05 04:12 52.91460 -6.76460 36086 ft 501 kts 284°
2026-05-05 04:13 52.93106 -6.87612 36083 ft 501 kts 284°
2026-05-05 04:13 52.94753 -6.98849 36087 ft 500 kts 284°
2026-05-05 04:14 52.96390 -7.10099 36089 ft 503 kts 284°
2026-05-05 04:14 52.98017 -7.21361 36087 ft 501 kts 284°
2026-05-05 04:15 52.99590 -7.32328 36091 ft 501 kts 283°
2026-05-05 04:15 53.01195 -7.43596 36093 ft 501 kts 283°
2026-05-05 04:16 53.02786 -7.54849 36104 ft 497 kts 283°
2026-05-05 04:16 53.04359 -7.66068 36101 ft 498 kts 283°
2026-05-05 04:17 53.05908 -7.77185 36102 ft 497 kts 283°
2026-05-05 04:17 53.07457 -7.88393 36102 ft 497 kts 283°
2026-05-05 04:18 53.08994 -7.99598 36103 ft 496 kts 283°
2026-05-05 04:18 53.10521 -8.10811 36102 ft 496 kts 283°
2026-05-05 04:19 53.12025 -8.21943 36112 ft 495 kts 282°
2026-05-05 04:19 53.13529 -8.33158 36111 ft 496 kts 282°
2026-05-05 04:20 53.15023 -8.44385 36115 ft 496 kts 282°
2026-05-05 04:20 53.16505 -8.55615 36116 ft 496 kts 282°
2026-05-05 04:21 53.17978 -8.66859 36123 ft 496 kts 282°
2026-05-05 04:21 53.19429 -8.78021 36121 ft 495 kts 282°
2026-05-05 04:22 53.20876 -8.89241 36118 ft 494 kts 282°
2026-05-05 04:22 53.22310 -9.00453 36119 ft 494 kts 282°
2026-05-05 04:23 53.23735 -9.11682 36119 ft 494 kts 282°
2026-05-05 04:23 53.25151 -9.22932 36121 ft 495 kts 282°
2026-05-05 04:24 53.26554 -9.34171 36122 ft 494 kts 282°
2026-05-05 04:25 53.28631 -9.50978 36117 ft 494 kts 282°
2026-05-05 04:25 53.30008 -9.62234 36121 ft 495 kts 282°
2026-05-05 04:26 53.31379 -9.73540 36126 ft 496 kts 281°
2026-05-05 04:26 53.32737 -9.84840 36119 ft 495 kts 282°
2026-05-05 04:27 53.34086 -9.96146 36133 ft 494 kts 282°
2026-05-05 04:27 53.35409 -10.07342 36132 ft 494 kts 281°
2026-05-05 04:28 53.36733 -10.18638 36137 ft 493 kts 281°
2026-05-05 04:28 53.38045 -10.29927 36135 ft 493 kts 281°
2026-05-05 04:29 53.39337 -10.41151 36131 ft 492 kts 281°
2026-05-05 04:29 53.40629 -10.52460 36132 ft 492 kts 281°
2026-05-05 04:30 53.41903 -10.63728 36129 ft 492 kts 281°
2026-05-05 04:30 53.43163 -10.74959 36130 ft 493 kts 281°
2026-05-05 04:31 53.44419 -10.86257 36142 ft 492 kts 281°
2026-05-05 04:31 53.45662 -10.97544 36142 ft 493 kts 281°
2026-05-05 04:32 53.46896 -11.08859 36147 ft 493 kts 281°
2026-05-05 04:32 53.48122 -11.20197 36147 ft 493 kts 281°
2026-05-05 04:33 53.49336 -11.31525 36146 ft 493 kts 281°
2026-05-05 04:33 53.50530 -11.42785 36149 ft 493 kts 281°
2026-05-05 04:34 53.51722 -11.54120 36145 ft 492 kts 281°
2026-05-05 04:34 53.52901 -11.65445 36144 ft 492 kts 281°
2026-05-05 04:35 53.54070 -11.76787 36149 ft 492 kts 280°
2026-05-05 04:35 53.55231 -11.88156 36156 ft 493 kts 280°
2026-05-05 04:36 53.56373 -11.99457 36149 ft 493 kts 280°
2026-05-05 04:36 53.57511 -12.10822 36148 ft 491 kts 280°
2026-05-05 04:37 53.58634 -12.22160 36148 ft 491 kts 280°
2026-05-05 04:37 53.59748 -12.33518 36156 ft 492 kts 280°
2026-05-05 04:38 53.60854 -12.44904 36168 ft 491 kts 280°
2026-05-05 04:38 53.61937 -12.56173 36160 ft 490 kts 280°
2026-05-05 04:39 53.63015 -12.67503 36161 ft 490 kts 279°
2026-05-05 04:39 53.64083 -12.78856 36166 ft 490 kts 279°
2026-05-05 04:40 53.65141 -12.90213 36166 ft 490 kts 279°
2026-05-05 04:40 53.66189 -13.01591 36172 ft 491 kts 279°
2026-05-05 04:41 53.67226 -13.12965 36168 ft 491 kts 279°
2026-05-05 04:41 53.68253 -13.24367 36175 ft 491 kts 279°
2026-05-05 04:42 53.69270 -13.35770 36176 ft 492 kts 279°
2026-05-05 04:42 53.70277 -13.47190 36180 ft 491 kts 279°
2026-05-05 04:43 53.71264 -13.58514 36181 ft 490 kts 279°
2026-05-05 04:43 53.72247 -13.69918 36183 ft 490 kts 278°
2026-05-05 04:44 53.73218 -13.81318 36184 ft 490 kts 278°
2026-05-05 04:44 53.74017 -13.90794 36190 ft 490 kts 278°
2026-05-05 04:45 53.74968 -14.02203 36190 ft 490 kts 278°
2026-05-05 04:45 53.75909 -14.13617 36194 ft 490 kts 278°
2026-05-05 04:46 53.76839 -14.25044 36200 ft 490 kts 278°
2026-05-05 04:46 53.77751 -14.36383 36200 ft 489 kts 278°
2026-05-05 04:47 53.78657 -14.47785 36200 ft 489 kts 278°
2026-05-05 04:47 53.79553 -14.59213 36205 ft 490 kts 278°
2026-05-05 04:48 53.80441 -14.70671 36209 ft 490 kts 278°
2026-05-05 04:48 53.81311 -14.82038 36203 ft 488 kts 278°
2026-05-05 04:49 53.82170 -14.93414 36218 ft 488 kts 278°
2026-05-05 04:49 53.83020 -15.04818 36221 ft 487 kts 278°
2026-05-05 04:50 53.83857 -15.16198 36219 ft 487 kts 278°
2026-05-05 04:50 53.84684 -15.27584 36218 ft 487 kts 278°
2026-05-05 04:51 53.85499 -15.38970 36207 ft 486 kts 278°
2026-05-05 04:51 53.86302 -15.50338 36215 ft 485 kts 277°
2026-05-05 04:52 53.87088 -15.61624 36215 ft 485 kts 277°
2026-05-05 04:52 53.87870 -15.73000 36217 ft 485 kts 277°
2026-05-05 04:53 53.88641 -15.84382 36216 ft 485 kts 277°
2026-05-05 04:53 53.89402 -15.95771 36219 ft 485 kts 277°
2026-05-05 04:54 53.90150 -16.07148 36221 ft 485 kts 277°
2026-05-05 04:54 53.90884 -16.18466 36222 ft 486 kts 277°
2026-05-05 04:55 53.91611 -16.29860 36229 ft 485 kts 277°
2026-05-05 04:55 53.92328 -16.41258 36231 ft 485 kts 277°
2026-05-05 04:56 53.93029 -16.52576 36232 ft 484 kts 276°
2026-05-05 04:56 53.93722 -16.63943 36237 ft 484 kts 276°
2026-05-05 04:57 53.94406 -16.75338 36237 ft 484 kts 276°
2026-05-05 04:57 53.95079 -16.86730 36237 ft 484 kts 276°
2026-05-05 04:58 53.95736 -16.98051 36238 ft 484 kts 276°
2026-05-05 04:58 53.96387 -17.09440 36230 ft 485 kts 276°
2026-05-05 04:59 53.97028 -17.20869 36234 ft 486 kts 276°
2026-05-05 04:59 53.97660 -17.32325 36242 ft 486 kts 276°
2026-05-05 05:00 53.98281 -17.43766 36241 ft 485 kts 276°
2026-05-05 05:00 53.98888 -17.55179 36251 ft 484 kts 276°
2026-05-05 05:01 53.99481 -17.66519 36245 ft 485 kts 275°
2026-05-05 05:01 54.00068 -17.77951 36249 ft 485 kts 275°
2026-05-05 05:02 54.00645 -17.89398 36252 ft 486 kts 275°
2026-05-05 05:02 54.01207 -18.00781 36257 ft 486 kts 275°
2026-05-05 05:03 54.01762 -18.12233 36255 ft 486 kts 275°
2026-05-05 05:03 54.02307 -18.23709 36253 ft 486 kts 275°
2026-05-05 05:04 54.02840 -18.35163 36254 ft 485 kts 275°
2026-05-05 05:04 54.03361 -18.46612 36255 ft 484 kts 275°
2026-05-05 05:05 54.03868 -18.57976 36254 ft 484 kts 275°
2026-05-05 05:05 54.04367 -18.69401 36259 ft 484 kts 275°
2026-05-05 05:06 54.04855 -18.80826 36264 ft 484 kts 274°
2026-05-05 05:06 54.05333 -18.92287 36269 ft 485 kts 274°
2026-05-05 05:07 54.05801 -19.03780 36266 ft 486 kts 274°
2026-05-05 05:07 54.06255 -19.15175 36269 ft 485 kts 274°
2026-05-05 05:08 54.06699 -19.26619 36266 ft 484 kts 274°
2026-05-05 05:08 54.07134 -19.38075 36270 ft 485 kts 274°
2026-05-05 05:09 54.07557 -19.49540 36271 ft 485 kts 274°
2026-05-05 05:09 54.07967 -19.60927 36277 ft 485 kts 274°
2026-05-05 05:10 54.08368 -19.72388 36279 ft 485 kts 274°
2026-05-05 05:10 54.08759 -19.83860 36282 ft 485 kts 273°
2026-05-05 05:11 54.09138 -19.95317 36272 ft 485 kts 273°
2026-05-05 05:11 54.09507 -20.06782 36275 ft 485 kts 273°
2026-05-05 05:12 54.09863 -20.18204 36279 ft 486 kts 273°
2026-05-05 05:12 54.10211 -20.29709 36286 ft 486 kts 273°
2026-05-05 05:13 54.10549 -20.41231 36291 ft 486 kts 273°
2026-05-05 05:13 54.10875 -20.52754 36287 ft 486 kts 272°
2026-05-05 05:14 54.11189 -20.64216 36289 ft 486 kts 272°
2026-05-05 05:14 54.11493 -20.75738 36292 ft 486 kts 272°
2026-05-05 05:15 54.11787 -20.87269 36295 ft 486 kts 272°
2026-05-05 05:15 54.12069 -20.98789 36297 ft 486 kts 272°
2026-05-05 05:16 54.12339 -21.10239 36290 ft 486 kts 272°
2026-05-05 05:16 54.12598 -21.21747 36289 ft 485 kts 272°
2026-05-05 05:17 54.12847 -21.33245 36290 ft 485 kts 272°
2026-05-05 05:17 54.13085 -21.44754 36294 ft 486 kts 272°
2026-05-05 05:18 54.13313 -21.56297 36295 ft 486 kts 272°
2026-05-05 05:18 54.13527 -21.67739 36290 ft 486 kts 272°
2026-05-05 05:19 54.13733 -21.79285 36291 ft 486 kts 272°
2026-05-05 05:19 54.13928 -21.90831 36293 ft 486 kts 272°
2026-05-05 05:20 54.14110 -22.02312 36297 ft 487 kts 271°
2026-05-05 05:20 54.14283 -22.13856 36300 ft 487 kts 271°
2026-05-05 05:21 54.14444 -22.25401 36298 ft 487 kts 271°
2026-05-05 05:21 54.14595 -22.36961 36304 ft 487 kts 271°
2026-05-05 05:22 54.14734 -22.48522 36308 ft 487 kts 271°
2026-05-05 05:22 54.14862 -22.60062 36311 ft 487 kts 271°
2026-05-05 05:23 54.14979 -22.71564 36310 ft 488 kts 271°
2026-05-05 05:23 54.15085 -22.83168 36307 ft 489 kts 271°
2026-05-05 05:24 54.15181 -22.94785 36308 ft 490 kts 271°
2026-05-05 05:24 54.15265 -23.06393 36308 ft 489 kts 271°
2026-05-05 05:25 54.15338 -23.17928 36305 ft 489 kts 271°
2026-05-05 05:25 54.15400 -23.29530 36304 ft 488 kts 271°
2026-05-05 05:26 54.15451 -23.41124 36298 ft 489 kts 271°
2026-05-05 05:26 54.15492 -23.52801 36306 ft 491 kts 271°
2026-05-05 05:27 54.15520 -23.64366 36305 ft 490 kts 271°
2026-05-05 05:27 54.15542 -23.81830 36309 ft 490 kts 271°
2026-05-05 05:28 54.15542 -23.93493 36308 ft 490 kts 270°
2026-05-05 05:28 54.15532 -24.05152 36327 ft 495 kts 271°
2026-05-05 05:29 54.15510 -24.16885 36325 ft 493 kts 271°
2026-05-05 05:29 54.15477 -24.28519 36326 ft 494 kts 271°
2026-05-05 05:30 54.15432 -24.40240 36330 ft 494 kts 270°
2026-05-05 05:30 54.15376 -24.51966 36330 ft 494 kts 270°
2026-05-05 05:31 54.15308 -24.63693 36316 ft 494 kts 271°
2026-05-05 05:31 54.15230 -24.75427 36319 ft 495 kts 270°
2026-05-05 05:32 54.15139 -24.87103 36322 ft 495 kts 270°
2026-05-05 05:32 54.15038 -24.98852 36325 ft 495 kts 270°
2026-05-05 05:33 54.14924 -25.10625 36324 ft 495 kts 270°
2026-05-05 05:33 54.14821 -25.20380 36323 ft 494 kts 270°
2026-05-05 05:34 54.14664 -25.34004 36335 ft 496 kts 271°
2026-05-05 05:34 54.14516 -25.45807 36339 ft 496 kts 270°
2026-05-05 05:35 54.14384 -25.55589 36328 ft 496 kts 270°
2026-05-05 05:35 54.14216 -25.67347 36327 ft 496 kts 270°
2026-05-05 05:36 54.14035 -25.79080 36328 ft 493 kts 271°
2026-05-05 05:36 54.13845 -25.90802 36331 ft 494 kts 270°
2026-05-05 05:37 54.13643 -26.02436 36335 ft 493 kts 270°
2026-05-05 05:37 54.13430 -26.14150 36341 ft 494 kts 270°
2026-05-05 05:38 54.13205 -26.25872 36334 ft 495 kts 270°
2026-05-05 05:38 54.12969 -26.37551 36332 ft 491 kts 270°
2026-05-05 05:39 54.12723 -26.49229 36335 ft 492 kts 270°
2026-05-05 05:39 54.12465 -26.60820 36342 ft 492 kts 270°
2026-05-05 05:40 54.12196 -26.72505 36342 ft 493 kts 270°
2026-05-05 05:40 54.11915 -26.84193 36343 ft 493 kts 270°
2026-05-05 05:41 54.11623 -26.95827 36339 ft 491 kts 270°
2026-05-05 05:41 54.11323 -27.07382 36342 ft 491 kts 270°
2026-05-05 05:42 54.11010 -27.19010 36343 ft 491 kts 270°
2026-05-05 05:42 54.10685 -27.30635 36346 ft 490 kts 270°
2026-05-05 05:43 54.10349 -27.42253 36353 ft 490 kts 270°
2026-05-05 05:43 54.10003 -27.53839 36352 ft 490 kts 270°
2026-05-05 05:44 54.09648 -27.65369 36357 ft 490 kts 269°
2026-05-05 05:44 54.09279 -27.76969 36355 ft 490 kts 269°
2026-05-05 05:45 54.08899 -27.88578 36361 ft 490 kts 269°
2026-05-05 05:45 54.08508 -28.00196 36362 ft 492 kts 269°
2026-05-05 05:46 54.08104 -28.11829 36363 ft 492 kts 269°
2026-05-05 05:46 54.07689 -28.23473 36371 ft 492 kts 269°
2026-05-05 05:47 54.07262 -28.35116 36370 ft 492 kts 269°
2026-05-05 05:47 54.06827 -28.46684 36372 ft 492 kts 269°
2026-05-05 05:48 54.06377 -28.58336 36359 ft 492 kts 269°
2026-05-05 05:48 54.05917 -28.69962 36361 ft 491 kts 269°
2026-05-05 05:49 54.05450 -28.81501 36354 ft 491 kts 269°
2026-05-05 05:49 54.04968 -28.93113 36354 ft 491 kts 269°
2026-05-05 05:50 54.04475 -29.04726 36368 ft 492 kts 269°
2026-05-05 05:50 54.03970 -29.16336 36348 ft 491 kts 269°
2026-05-05 05:51 54.03455 -29.27962 36370 ft 496 kts 269°
2026-05-05 05:51 54.02928 -29.39541 36369 ft 493 kts 269°
2026-05-05 05:52 54.02389 -29.51188 36369 ft 494 kts 269°
2026-05-05 05:52 54.01835 -29.62873 36372 ft 495 kts 268°
2026-05-05 05:53 54.01271 -29.74531 36364 ft 494 kts 269°
2026-05-05 05:53 54.00699 -29.86142 36368 ft 493 kts 268°
2026-05-05 05:54 54.00118 -29.97760 36371 ft 492 kts 270°
2026-05-05 05:54 54.00376 -30.09315 36384 ft 489 kts 277°
2026-05-05 05:55 54.00852 -30.20769 36381 ft 489 kts 277°
2026-05-05 05:55 54.01300 -30.32318 36382 ft 488 kts 277°
2026-05-05 05:56 54.01748 -30.43863 36372 ft 492 kts 277°
2026-05-05 05:56 54.02178 -30.55430 36371 ft 490 kts 277°
2026-05-05 05:57 54.02601 -30.66991 36373 ft 490 kts 277°
2026-05-05 05:57 54.03012 -30.78571 36369 ft 490 kts 277°
2026-05-05 05:58 54.03412 -30.90155 36371 ft 490 kts 277°
2026-05-05 05:58 54.03797 -31.01656 36360 ft 486 kts 277°
2026-05-05 05:59 54.04174 -31.13160 36362 ft 488 kts 277°
2026-05-05 05:59 54.04538 -31.24688 36359 ft 487 kts 277°
2026-05-05 06:00 54.04893 -31.36217 36361 ft 489 kts 277°
2026-05-05 06:00 54.05236 -31.47780 36366 ft 489 kts 277°
2026-05-05 06:01 54.05569 -31.59340 36362 ft 489 kts 277°
2026-05-05 06:01 54.05885 -31.70803 36354 ft 482 kts 277°
2026-05-05 06:02 54.06196 -31.82248 36356 ft 483 kts 277°
2026-05-05 06:02 54.06490 -31.93691 36355 ft 483 kts 277°
2026-05-05 06:03 54.06775 -32.05054 36352 ft 483 kts 276°
2026-05-05 06:03 54.07049 -32.16487 36352 ft 483 kts 276°
2026-05-05 06:04 54.07314 -32.27942 36350 ft 482 kts 276°
2026-05-05 06:04 54.07562 -32.39247 36349 ft 480 kts 276°
2026-05-05 06:05 54.07803 -32.50590 36348 ft 478 kts 276°
2026-05-05 06:05 54.08032 -32.61923 36342 ft 479 kts 276°
2026-05-05 06:06 54.08250 -32.73222 36343 ft 479 kts 276°
2026-05-05 06:06 54.08458 -32.84566 36341 ft 479 kts 276°
2026-05-05 06:07 54.08654 -32.95867 36345 ft 472 kts 275°
2026-05-05 06:07 54.08841 -33.07088 36338 ft 475 kts 275°
2026-05-05 06:08 54.09014 -33.18318 36344 ft 474 kts 275°
2026-05-05 06:08 54.09178 -33.29481 36345 ft 474 kts 275°
2026-05-05 06:09 54.09331 -33.40731 36346 ft 475 kts 275°
2026-05-05 06:09 54.09474 -33.52000 36342 ft 475 kts 275°
2026-05-05 06:10 54.09606 -33.63204 36324 ft 471 kts 275°
2026-05-05 06:10 54.09729 -33.74402 36327 ft 472 kts 275°
2026-05-05 06:11 54.09839 -33.85530 36327 ft 472 kts 274°
2026-05-05 06:11 54.09940 -33.96703 36327 ft 471 kts 274°
2026-05-05 06:12 54.10032 -34.07919 36325 ft 476 kts 274°
2026-05-05 06:12 54.10111 -34.19152 36324 ft 474 kts 274°
2026-05-05 06:13 54.10182 -34.30402 36327 ft 474 kts 274°
2026-05-05 06:13 54.10241 -34.41597 36317 ft 475 kts 274°
2026-05-05 06:14 54.10291 -34.52846 36321 ft 475 kts 274°
2026-05-05 06:14 54.10329 -34.64124 36318 ft 475 kts 274°
2026-05-05 06:15 54.10357 -34.75324 36318 ft 475 kts 274°
2026-05-05 06:15 54.10375 -34.86590 36312 ft 474 kts 273°
2026-05-05 06:16 54.10383 -34.97864 36305 ft 477 kts 272°
2026-05-05 06:16 54.10379 -35.09201 36297 ft 477 kts 272°
2026-05-05 06:17 54.10365 -35.20516 36297 ft 477 kts 272°
2026-05-05 06:17 54.10341 -35.31835 36299 ft 478 kts 272°
2026-05-05 06:18 54.10305 -35.43176 36294 ft 478 kts 272°
2026-05-05 06:18 54.10261 -35.54463 36293 ft 482 kts 271°
2026-05-05 06:19 54.10202 -35.65910 36287 ft 481 kts 271°
2026-05-05 06:19 54.10135 -35.77326 36285 ft 482 kts 271°
2026-05-05 06:20 54.10057 -35.88689 36279 ft 484 kts 271°
2026-05-05 06:20 54.09967 -36.00186 36280 ft 484 kts 271°
2026-05-05 06:21 54.09866 -36.11678 36265 ft 484 kts 270°
2026-05-05 06:21 54.09754 -36.23168 36261 ft 487 kts 269°
2026-05-05 06:22 54.09630 -36.34717 36264 ft 486 kts 269°
2026-05-05 06:22 54.09496 -36.46220 36258 ft 487 kts 269°
2026-05-05 06:23 54.09376 -36.55819 36254 ft 486 kts 269°
2026-05-05 06:23 54.09196 -36.69193 36244 ft 487 kts 269°
2026-05-05 06:24 54.09031 -36.80701 36249 ft 484 kts 267°
2026-05-05 06:24 54.08882 -36.90205 36238 ft 484 kts 268°
2026-05-05 06:25 54.08697 -37.01689 36229 ft 482 kts 267°
2026-05-05 06:25 54.08498 -37.13150 36226 ft 486 kts 268°
2026-05-05 06:26 54.08291 -37.24624 36226 ft 481 kts 267°
2026-05-05 06:26 54.08071 -37.36058 36219 ft 485 kts 267°
2026-05-05 06:27 54.07719 -37.53345 36219 ft 490 kts 266°
2026-05-05 06:28 54.07476 -37.64882 36219 ft 488 kts 265°
2026-05-05 06:28 54.07211 -37.76491 36196 ft 494 kts 265°
2026-05-05 06:29 54.06940 -37.88154 36199 ft 491 kts 265°
2026-05-05 06:29 54.06654 -37.99828 36196 ft 494 kts 265°
2026-05-05 06:30 54.06358 -38.11503 36180 ft 497 kts 264°
2026-05-05 06:30 54.06045 -38.23358 36178 ft 501 kts 264°
2026-05-05 06:31 54.05724 -38.35139 36178 ft 502 kts 264°
2026-05-05 06:31 54.05386 -38.47039 36161 ft 502 kts 264°
2026-05-05 06:32 54.05038 -38.58925 36159 ft 502 kts 264°
2026-05-05 06:32 54.04678 -38.70765 36155 ft 507 kts 263°
2026-05-05 06:33 54.04303 -38.82777 36145 ft 508 kts 263°
2026-05-05 06:33 54.03915 -38.94780 36125 ft 508 kts 263°
2026-05-05 06:34 54.03516 -39.06768 36122 ft 508 kts 263°
2026-05-05 06:34 54.03105 -39.18773 36126 ft 508 kts 263°
2026-05-05 06:35 54.02680 -39.30788 36113 ft 508 kts 263°
2026-05-05 06:35 54.02243 -39.42790 36102 ft 513 kts 262°
2026-05-05 06:36 54.01792 -39.54935 36096 ft 512 kts 262°
2026-05-05 06:36 54.01328 -39.66995 36085 ft 514 kts 262°
2026-05-05 06:37 54.00852 -39.79124 36071 ft 514 kts 261°
2026-05-05 06:37 54.00361 -39.91261 36066 ft 514 kts 261°
2026-05-05 06:38 53.99789 -40.03379 36063 ft 516 kts 258°
2026-05-05 06:38 53.99119 -40.15571 36051 ft 517 kts 260°
2026-05-05 06:39 53.98402 -40.27665 36048 ft 517 kts 259°
2026-05-05 06:39 53.97680 -40.39843 36045 ft 518 kts 259°
2026-05-05 06:40 53.96944 -40.52042 36037 ft 521 kts 259°
2026-05-05 06:40 53.96194 -40.64212 36036 ft 519 kts 259°
2026-05-05 06:41 53.95432 -40.76429 36016 ft 519 kts 258°
2026-05-05 06:41 53.94657 -40.88604 36014 ft 519 kts 258°
2026-05-05 06:42 53.93871 -41.00797 36006 ft 519 kts 258°
2026-05-05 06:42 53.93070 -41.12975 36004 ft 519 kts 258°
2026-05-05 06:43 53.92263 -41.25094 35984 ft 523 kts 258°
2026-05-05 06:43 53.91431 -41.37387 35988 ft 522 kts 258°
2026-05-05 06:44 53.90584 -41.49687 35979 ft 527 kts 258°
2026-05-05 06:44 53.89726 -41.62013 35978 ft 525 kts 258°
2026-05-05 06:45 53.88851 -41.74335 35969 ft 526 kts 257°
2026-05-05 06:45 53.87971 -41.86590 35963 ft 529 kts 257°
2026-05-05 06:46 53.87068 -41.98968 35960 ft 528 kts 257°
2026-05-05 06:46 53.86154 -42.11321 35960 ft 528 kts 257°
2026-05-05 06:47 53.85226 -42.23680 35950 ft 528 kts 257°
2026-05-05 06:47 53.84285 -42.36034 35951 ft 528 kts 257°
2026-05-05 06:48 53.83333 -42.48369 35938 ft 531 kts 256°
2026-05-05 06:48 53.82368 -42.60699 35937 ft 530 kts 256°
2026-05-05 06:49 53.81386 -42.73079 35934 ft 531 kts 256°
2026-05-05 06:49 53.80389 -42.85475 35933 ft 531 kts 256°
2026-05-05 06:50 53.79380 -42.97860 35925 ft 532 kts 256°
2026-05-05 06:50 53.78358 -43.10253 35938 ft 533 kts 256°
2026-05-05 06:51 53.77325 -43.22619 35934 ft 530 kts 256°
2026-05-05 06:51 53.76275 -43.34987 35918 ft 533 kts 255°
2026-05-05 06:52 53.75212 -43.47409 35924 ft 534 kts 255°
2026-05-05 06:52 53.74141 -43.59736 35925 ft 533 kts 255°
2026-05-05 06:53 53.73052 -43.72129 35901 ft 531 kts 255°
2026-05-05 06:53 53.71962 -43.84369 35904 ft 530 kts 255°
2026-05-05 06:54 53.70858 -43.96642 35905 ft 528 kts 255°
2026-05-05 06:54 53.69741 -44.08899 35898 ft 528 kts 255°
2026-05-05 06:55 53.68610 -44.21166 35893 ft 528 kts 255°
2026-05-05 06:55 53.67465 -44.33442 35886 ft 528 kts 255°
2026-05-05 06:56 53.66322 -44.45571 35886 ft 527 kts 255°
2026-05-05 06:56 53.65162 -44.57740 35886 ft 525 kts 255°
2026-05-05 06:57 53.63997 -44.69810 35880 ft 525 kts 255°
2026-05-05 06:57 53.62812 -44.81961 35872 ft 525 kts 255°
2026-05-05 06:58 53.61616 -44.94098 35864 ft 524 kts 255°
2026-05-05 06:58 53.60415 -45.06152 35867 ft 523 kts 255°
2026-05-05 06:59 53.59200 -45.18222 35853 ft 523 kts 255°
2026-05-05 06:59 53.57968 -45.30327 35850 ft 524 kts 255°
2026-05-05 07:00 53.56734 -45.42330 35844 ft 523 kts 255°
2026-05-05 07:00 53.55480 -45.54395 35841 ft 523 kts 255°
2026-05-05 07:01 53.54219 -45.66413 35833 ft 522 kts 255°
2026-05-05 07:01 53.52944 -45.78435 35835 ft 521 kts 255°
2026-05-05 07:02 53.51661 -45.90422 35815 ft 521 kts 255°
2026-05-05 07:02 53.50374 -46.02315 35815 ft 521 kts 255°
2026-05-05 07:03 53.49062 -46.14316 35809 ft 524 kts 255°
2026-05-05 07:03 53.47744 -46.26285 35790 ft 522 kts 255°
2026-05-05 07:04 53.46410 -46.38258 35790 ft 521 kts 255°
2026-05-05 07:04 53.45076 -46.50129 35792 ft 521 kts 254°
2026-05-05 07:05 53.43721 -46.62067 35789 ft 520 kts 254°
2026-05-05 07:05 53.42356 -46.73981 35778 ft 520 kts 254°
2026-05-05 07:06 53.40979 -46.85891 35767 ft 520 kts 254°
2026-05-05 07:06 53.39591 -46.97786 35769 ft 520 kts 254°
2026-05-05 07:07 53.38183 -47.09727 35756 ft 523 kts 254°
2026-05-05 07:07 53.36777 -47.21584 35758 ft 522 kts 254°
2026-05-05 07:08 53.35345 -47.33509 35743 ft 522 kts 254°
2026-05-05 07:08 53.33915 -47.45341 35735 ft 520 kts 253°
2026-05-05 07:09 53.32470 -47.57175 35730 ft 519 kts 253°
2026-05-05 07:09 53.31014 -47.69004 35730 ft 519 kts 253°
2026-05-05 07:10 53.29555 -47.80742 35709 ft 518 kts 253°
2026-05-05 07:10 53.28075 -47.92561 35724 ft 519 kts 253°
2026-05-05 07:11 53.26837 -48.02365 35702 ft 518 kts 253°
2026-05-05 07:11 53.25340 -48.14135 35691 ft 518 kts 253°
2026-05-05 07:12 53.23831 -48.25891 35685 ft 518 kts 253°
2026-05-05 07:12 53.22311 -48.37637 35684 ft 518 kts 253°
2026-05-05 07:13 53.20779 -48.49384 35688 ft 518 kts 253°
2026-05-05 07:13 53.19238 -48.61105 35660 ft 516 kts 253°
2026-05-05 07:14 53.17683 -48.72817 35652 ft 517 kts 253°
2026-05-05 07:14 53.16129 -48.84450 35642 ft 519 kts 253°
2026-05-05 07:15 53.14545 -48.96201 35630 ft 519 kts 253°
2026-05-05 07:15 53.12955 -49.07907 35661 ft 518 kts 253°
2026-05-05 07:16 53.11360 -49.19559 35618 ft 515 kts 253°
2026-05-05 07:16 53.09749 -49.31224 35620 ft 516 kts 253°
2026-05-05 07:17 53.08129 -49.42876 35612 ft 516 kts 253°
2026-05-05 07:17 53.06500 -49.54496 35601 ft 515 kts 253°
2026-05-05 07:18 53.04863 -49.66087 35617 ft 515 kts 252°
2026-05-05 07:18 53.03220 -49.77629 35591 ft 516 kts 253°
2026-05-05 07:19 53.01555 -49.89244 35568 ft 517 kts 253°
2026-05-05 07:19 52.99782 -50.00813 35575 ft 513 kts 246°
2026-05-05 07:20 52.97177 -50.11819 35568 ft 512 kts 244°
2026-05-05 07:20 52.94544 -50.22711 35559 ft 512 kts 244°
2026-05-05 07:21 52.91908 -50.33635 35542 ft 511 kts 244°
2026-05-05 07:21 52.89248 -50.44557 35547 ft 510 kts 244°
2026-05-05 07:22 52.86588 -50.55448 35535 ft 510 kts 244°
2026-05-05 07:22 52.83916 -50.66324 35538 ft 511 kts 244°
2026-05-05 07:23 52.81233 -50.77198 35517 ft 513 kts 244°
2026-05-05 07:23 52.78530 -50.88097 35520 ft 512 kts 244°
2026-05-05 07:24 52.75836 -50.98903 35517 ft 512 kts 244°
2026-05-05 07:24 52.73114 -51.09770 35512 ft 512 kts 244°
2026-05-05 07:25 52.70383 -51.20620 35500 ft 512 kts 244°
2026-05-05 07:25 52.67646 -51.31444 35491 ft 512 kts 244°
2026-05-05 07:26 52.64896 -51.42261 35492 ft 511 kts 244°
2026-05-05 07:26 52.62137 -51.53065 35487 ft 511 kts 244°
2026-05-05 07:27 52.59368 -51.63856 35478 ft 511 kts 244°
2026-05-05 07:27 52.56608 -51.74559 35467 ft 510 kts 244°
2026-05-05 07:28 52.53824 -51.85304 35470 ft 511 kts 244°
2026-05-05 07:28 52.51031 -51.96036 35471 ft 510 kts 244°
2026-05-05 07:29 52.48229 -52.06747 35471 ft 511 kts 244°
2026-05-05 07:29 52.45416 -52.17453 35454 ft 510 kts 244°
2026-05-05 07:30 52.42597 -52.28129 35451 ft 510 kts 244°
2026-05-05 07:30 52.38366 -52.44061 35446 ft 511 kts 244°
2026-05-05 07:31 52.35515 -52.54732 35446 ft 511 kts 243°
2026-05-05 07:31 52.32660 -52.65370 35438 ft 510 kts 244°
2026-05-05 07:32 52.29827 -52.75879 35440 ft 510 kts 244°
2026-05-05 07:32 52.26962 -52.86459 35434 ft 510 kts 244°
2026-05-05 07:33 52.24085 -52.97031 35430 ft 512 kts 244°
2026-05-05 07:33 52.21191 -53.07620 35426 ft 511 kts 243°
2026-05-05 07:34 52.18293 -53.18175 35414 ft 509 kts 244°
2026-05-05 07:34 52.15385 -53.28713 35422 ft 510 kts 244°
2026-05-05 07:35 52.12472 -53.39229 35408 ft 510 kts 244°
2026-05-05 07:35 52.09568 -53.49660 35407 ft 510 kts 244°
2026-05-05 07:36 52.06638 -53.60142 35396 ft 507 kts 244°
2026-05-05 07:36 52.03716 -53.70547 35394 ft 507 kts 244°
2026-05-05 07:37 52.00784 -53.80940 35380 ft 507 kts 243°
2026-05-05 07:37 51.97863 -53.91250 35381 ft 507 kts 243°
2026-05-05 07:38 51.94912 -54.01618 35403 ft 507 kts 243°
2026-05-05 07:38 51.91969 -54.11917 35388 ft 503 kts 244°
2026-05-05 07:39 51.89023 -54.22176 35381 ft 504 kts 243°
2026-05-05 07:39 51.86077 -54.32397 35384 ft 505 kts 243°
2026-05-05 07:40 51.83108 -54.42647 35387 ft 505 kts 243°
2026-05-05 07:40 51.80247 -54.52941 35396 ft 502 kts 250°
2026-05-05 07:41 51.78637 -54.63939 35372 ft 505 kts 256°
2026-05-05 07:41 51.77219 -54.75018 35378 ft 502 kts 256°
2026-05-05 07:42 51.75776 -54.86084 35376 ft 501 kts 256°
2026-05-05 07:42 51.74328 -54.97152 35366 ft 507 kts 256°
2026-05-05 07:43 51.72858 -55.08282 35367 ft 510 kts 256°
2026-05-05 07:43 51.71388 -55.19342 35348 ft 508 kts 256°
2026-05-05 07:44 51.69896 -55.30468 35343 ft 505 kts 256°
2026-05-05 07:44 51.68395 -55.41578 35345 ft 506 kts 256°
2026-05-05 07:45 51.66880 -55.52709 35325 ft 508 kts 256°
2026-05-05 07:45 51.65366 -55.63750 35330 ft 510 kts 256°
2026-05-05 07:46 51.63836 -55.74823 35324 ft 508 kts 256°
2026-05-05 07:46 51.62289 -55.85925 35311 ft 507 kts 256°
2026-05-05 07:47 51.60731 -55.97043 35311 ft 507 kts 256°
2026-05-05 07:47 51.59162 -56.08145 35310 ft 509 kts 256°
2026-05-05 07:48 51.57585 -56.19218 35314 ft 509 kts 256°
2026-05-05 07:48 51.55999 -56.30280 35294 ft 509 kts 256°
2026-05-05 07:49 51.54416 -56.41246 35297 ft 495 kts 256°
2026-05-05 07:49 51.52850 -56.52006 35294 ft 495 kts 256°
2026-05-05 07:50 51.51264 -56.62838 35294 ft 499 kts 256°
2026-05-05 07:50 51.49673 -56.73628 35294 ft 499 kts 256°
2026-05-05 07:51 51.48065 -56.84453 35291 ft 500 kts 256°
2026-05-05 07:51 51.46471 -56.95119 35287 ft 487 kts 255°
2026-05-05 07:52 51.44864 -57.05789 35285 ft 486 kts 255°
2026-05-05 07:52 51.43256 -57.16398 35288 ft 497 kts 255°
2026-05-05 07:53 51.41609 -57.27197 35312 ft 501 kts 255°
2026-05-05 07:53 51.39948 -57.38005 35326 ft 501 kts 255°
2026-05-05 07:54 51.38278 -57.48805 35332 ft 498 kts 255°
2026-05-05 07:54 51.36596 -57.59612 35348 ft 498 kts 255°
2026-05-05 07:55 51.34903 -57.70421 35349 ft 499 kts 255°
2026-05-05 07:55 51.33209 -57.81153 35352 ft 507 kts 255°
2026-05-05 07:56 51.31470 -57.92110 35367 ft 508 kts 255°
2026-05-05 07:56 51.29723 -58.03038 35365 ft 508 kts 255°
2026-05-05 07:57 51.27972 -58.13926 35369 ft 502 kts 255°
2026-05-05 07:57 51.26510 -58.22959 35370 ft 504 kts 255°
2026-05-05 07:58 51.24744 -58.33807 35370 ft 505 kts 255°
2026-05-05 07:58 51.22969 -58.44639 35370 ft 506 kts 255°
2026-05-05 07:59 51.21178 -58.55499 35372 ft 510 kts 255°
2026-05-05 07:59 51.19367 -58.66413 35361 ft 507 kts 255°
2026-05-05 08:00 51.17573 -58.77150 35367 ft 504 kts 255°
2026-05-05 08:00 51.15755 -58.87971 35367 ft 505 kts 255°
2026-05-05 08:01 51.13928 -58.98776 35361 ft 505 kts 255°
2026-05-05 08:01 51.12090 -59.09576 35365 ft 505 kts 255°
2026-05-05 08:02 51.10240 -59.20380 35362 ft 506 kts 255°
2026-05-05 08:02 51.08397 -59.31077 35357 ft 503 kts 255°
2026-05-05 08:03 51.06536 -59.41812 35357 ft 503 kts 255°
2026-05-05 08:03 51.04664 -59.52549 35358 ft 503 kts 254°
2026-05-05 08:04 51.02782 -59.63274 35362 ft 503 kts 254°
2026-05-05 08:04 51.00890 -59.73996 35374 ft 503 kts 254°
2026-05-05 08:05 50.99002 -59.84627 35369 ft 502 kts 254°
2026-05-05 08:05 50.97099 -59.95280 35386 ft 503 kts 254°
2026-05-05 08:06 50.95185 -60.05934 35393 ft 503 kts 254°
2026-05-05 08:06 50.93257 -60.16600 35410 ft 502 kts 254°
2026-05-05 08:07 50.91335 -60.27171 35406 ft 501 kts 254°
2026-05-05 08:07 50.89392 -60.37798 35406 ft 502 kts 254°
2026-05-05 08:08 50.87445 -60.48386 35423 ft 499 kts 254°
2026-05-05 08:08 50.85488 -60.58964 35437 ft 501 kts 254°
2026-05-05 08:09 50.83531 -60.69487 35457 ft 501 kts 254°
2026-05-05 08:09 50.81552 -60.80064 35457 ft 501 kts 254°
2026-05-05 08:10 50.79563 -60.90638 35474 ft 501 kts 254°
2026-05-05 08:10 50.77563 -61.01203 35465 ft 501 kts 254°
2026-05-05 08:11 50.75556 -61.11756 35465 ft 501 kts 254°
2026-05-05 08:11 50.73551 -61.22236 35465 ft 501 kts 254°
2026-05-05 08:12 50.71525 -61.32766 35475 ft 502 kts 254°
2026-05-05 08:12 50.69483 -61.43317 35471 ft 503 kts 254°
2026-05-05 08:13 50.67429 -61.53874 35472 ft 502 kts 254°
2026-05-05 08:13 50.65374 -61.64380 35474 ft 501 kts 254°
2026-05-05 08:14 50.63311 -61.74868 35481 ft 501 kts 253°
2026-05-05 08:14 50.61238 -61.85354 35484 ft 501 kts 253°
2026-05-05 08:15 50.59167 -61.95768 35484 ft 501 kts 253°
2026-05-05 08:15 50.57074 -62.06241 35496 ft 501 kts 253°
2026-05-05 08:16 50.54984 -62.16636 35497 ft 496 kts 253°
2026-05-05 08:16 50.52886 -62.27025 35514 ft 498 kts 253°
2026-05-05 08:17 50.50794 -62.37324 35512 ft 498 kts 253°
2026-05-05 08:17 50.48678 -62.47689 35530 ft 498 kts 253°
2026-05-05 08:18 50.46552 -62.58046 35532 ft 498 kts 253°
2026-05-05 08:18 50.44435 -62.68305 35545 ft 493 kts 253°
2026-05-05 08:19 50.42315 -62.78532 35543 ft 494 kts 253°
2026-05-05 08:19 50.40185 -62.88750 35544 ft 493 kts 253°
2026-05-05 08:20 50.38045 -62.98968 35552 ft 493 kts 253°
2026-05-05 08:20 50.35907 -63.09119 35555 ft 493 kts 253°
2026-05-05 08:21 50.33763 -63.19249 35558 ft 492 kts 253°
2026-05-05 08:21 50.31601 -63.29416 35559 ft 492 kts 253°
2026-05-05 08:22 50.29428 -63.39584 35562 ft 493 kts 253°
2026-05-05 08:22 50.27247 -63.49735 35564 ft 493 kts 253°
2026-05-05 08:23 50.25055 -63.59889 35565 ft 493 kts 253°
2026-05-05 08:23 50.22866 -63.69977 35566 ft 493 kts 253°
2026-05-05 08:24 50.20661 -63.80088 35574 ft 489 kts 253°
2026-05-05 08:24 50.18452 -63.90177 35577 ft 491 kts 253°
2026-05-05 08:25 50.16233 -64.00251 35588 ft 490 kts 253°
2026-05-05 08:25 50.14027 -64.10224 35588 ft 489 kts 253°
2026-05-05 08:26 50.11793 -64.20274 35598 ft 490 kts 253°
2026-05-05 08:26 50.09553 -64.30302 35600 ft 489 kts 253°
2026-05-05 08:27 50.07313 -64.40283 35608 ft 488 kts 253°
2026-05-05 08:27 50.05065 -64.50254 35604 ft 488 kts 252°
2026-05-05 08:28 50.02824 -64.60147 35611 ft 488 kts 252°
2026-05-05 08:28 50.00556 -64.70106 35628 ft 488 kts 252°
2026-05-05 08:29 49.98279 -64.80064 35624 ft 488 kts 252°
2026-05-05 08:30 49.94873 -64.94872 35642 ft 485 kts 252°
2026-05-05 08:30 49.92609 -65.04656 35641 ft 484 kts 252°
2026-05-05 08:31 49.90323 -65.14493 35644 ft 484 kts 252°
2026-05-05 08:31 49.88044 -65.24253 35645 ft 484 kts 252°
2026-05-05 08:32 49.85745 -65.34055 35647 ft 483 kts 252°
2026-05-05 08:32 49.83452 -65.43783 35647 ft 478 kts 252°
2026-05-05 08:33 49.81153 -65.53502 35655 ft 480 kts 252°
2026-05-05 08:33 49.78851 -65.63183 35655 ft 479 kts 252°
2026-05-05 08:34 49.76553 -65.72809 35661 ft 479 kts 252°
2026-05-05 08:34 49.74235 -65.82470 35660 ft 479 kts 252°
2026-05-05 08:35 49.71913 -65.92109 35670 ft 476 kts 252°
2026-05-05 08:35 49.69595 -66.01691 35668 ft 477 kts 252°
2026-05-05 08:36 49.67263 -66.11285 35671 ft 476 kts 252°
2026-05-05 08:36 49.64942 -66.20795 35669 ft 476 kts 252°
2026-05-05 08:37 49.62603 -66.30335 35670 ft 476 kts 252°
2026-05-05 08:37 49.60250 -66.39893 35679 ft 476 kts 252°
2026-05-05 08:38 49.57895 -66.49418 35678 ft 474 kts 252°
2026-05-05 08:38 49.55537 -66.58917 35684 ft 474 kts 252°
2026-05-05 08:39 49.53174 -66.68390 35682 ft 474 kts 252°
2026-05-05 08:39 49.50818 -66.77798 35684 ft 473 kts 252°
2026-05-05 08:40 49.48437 -66.87267 35685 ft 475 kts 252°
2026-05-05 08:40 49.46042 -66.96748 35700 ft 472 kts 252°
2026-05-05 08:41 49.43661 -67.06142 35694 ft 473 kts 252°
2026-05-05 08:41 49.41288 -67.15454 35701 ft 470 kts 251°
2026-05-05 08:42 49.38901 -67.24793 35704 ft 470 kts 251°
2026-05-05 08:42 49.36506 -67.34119 35699 ft 470 kts 251°
2026-05-05 08:43 49.34102 -67.43442 35702 ft 470 kts 251°
2026-05-05 08:43 49.31695 -67.52739 35694 ft 468 kts 251°
2026-05-05 08:44 49.29280 -67.62035 35697 ft 469 kts 251°
2026-05-05 08:44 49.26872 -67.71258 35697 ft 468 kts 251°
2026-05-05 08:45 49.24439 -67.80547 35693 ft 470 kts 251°
2026-05-05 08:45 49.21996 -67.89828 35699 ft 470 kts 251°
2026-05-05 08:46 49.19547 -67.99104 35690 ft 470 kts 251°
2026-05-05 08:46 49.17082 -68.08394 35701 ft 471 kts 250°
2026-05-05 08:47 49.14611 -68.17673 35701 ft 471 kts 250°
2026-05-05 08:47 49.11961 -68.26783 35709 ft 473 kts 247°
2026-05-05 08:48 49.09113 -68.35848 35711 ft 473 kts 247°
2026-05-05 08:48 49.06738 -68.43374 35715 ft 474 kts 247°
2026-05-05 08:49 49.03870 -68.52430 35729 ft 474 kts 247°
2026-05-05 08:49 49.00537 -68.62918 35717 ft 472 kts 247°
2026-05-05 08:50 48.97666 -68.71915 35718 ft 472 kts 247°
2026-05-05 08:50 48.95276 -68.79382 35712 ft 472 kts 247°
2026-05-05 08:51 48.92388 -68.88374 35710 ft 472 kts 247°
2026-05-05 08:51 48.89508 -68.97307 35703 ft 467 kts 246°
2026-05-05 08:52 48.86649 -69.06149 35701 ft 467 kts 246°
2026-05-05 08:52 48.83774 -69.15005 35698 ft 467 kts 246°
2026-05-05 08:53 48.80916 -69.23781 35699 ft 467 kts 246°
2026-05-05 08:53 48.78030 -69.32607 35691 ft 467 kts 246°
2026-05-05 08:54 48.75157 -69.41361 35701 ft 457 kts 246°
2026-05-05 08:54 48.72303 -69.50044 35700 ft 460 kts 246°
2026-05-05 08:55 48.69438 -69.58714 35702 ft 460 kts 246°
2026-05-05 08:55 48.66569 -69.67373 35699 ft 460 kts 246°
2026-05-05 08:56 48.63708 -69.75976 35697 ft 460 kts 246°
2026-05-05 08:56 48.60829 -69.84602 35690 ft 456 kts 246°
2026-05-05 08:57 48.57958 -69.93184 35685 ft 457 kts 246°
2026-05-05 08:57 48.55078 -70.01755 35685 ft 458 kts 246°
2026-05-05 08:58 48.52191 -70.10325 35684 ft 458 kts 246°
2026-05-05 08:58 48.49321 -70.18812 35688 ft 457 kts 246°
2026-05-05 08:59 48.46447 -70.27280 35674 ft 450 kts 246°
2026-05-05 08:59 48.43589 -70.35682 35664 ft 451 kts 246°
2026-05-05 09:00 48.40720 -70.44081 35665 ft 451 kts 245°
2026-05-05 09:00 48.37851 -70.52458 35660 ft 451 kts 245°
2026-05-05 09:01 48.34970 -70.60838 35647 ft 450 kts 245°
2026-05-05 09:01 48.32102 -70.69156 35632 ft 449 kts 245°
2026-05-05 09:02 48.29235 -70.77446 35631 ft 448 kts 245°
2026-05-05 09:02 48.26372 -70.85692 35639 ft 444 kts 245°
2026-05-05 09:03 48.23508 -70.93924 35635 ft 445 kts 245°
2026-05-05 09:03 48.20637 -71.02141 35637 ft 444 kts 245°
2026-05-05 09:04 48.17761 -71.10352 35634 ft 444 kts 245°
2026-05-05 09:04 48.14901 -71.18488 35619 ft 444 kts 245°
2026-05-05 09:05 48.12014 -71.26679 35606 ft 445 kts 245°
2026-05-05 09:05 48.09116 -71.34872 35606 ft 445 kts 245°
2026-05-05 09:06 48.06215 -71.43051 35603 ft 444 kts 244°
2026-05-05 09:06 48.03316 -71.51196 35598 ft 444 kts 244°
2026-05-05 09:07 48.00421 -71.59308 35593 ft 446 kts 244°
2026-05-05 09:07 47.97492 -71.67485 35595 ft 446 kts 244°
2026-05-05 09:08 47.94556 -71.75661 35598 ft 446 kts 244°
2026-05-05 09:08 47.91617 -71.83817 35598 ft 447 kts 244°
2026-05-05 09:09 47.88668 -71.91977 35602 ft 447 kts 244°
2026-05-05 09:09 47.85717 -72.00114 35605 ft 445 kts 244°
2026-05-05 09:10 47.82790 -72.08164 35611 ft 444 kts 244°
2026-05-05 09:10 47.79843 -72.16243 35609 ft 444 kts 244°
2026-05-05 09:11 47.76891 -72.24309 35615 ft 444 kts 244°
2026-05-05 09:11 47.73929 -72.32380 35615 ft 444 kts 244°
2026-05-05 09:12 47.70980 -72.40391 35608 ft 444 kts 244°
2026-05-05 09:12 47.68017 -72.48416 35609 ft 443 kts 244°
2026-05-05 09:13 47.65049 -72.56430 35608 ft 443 kts 244°
2026-05-05 09:13 47.62079 -72.64424 35612 ft 443 kts 244°
2026-05-05 09:14 47.59097 -72.72428 35609 ft 443 kts 244°
2026-05-05 09:14 47.56126 -72.80378 35610 ft 444 kts 243°
2026-05-05 09:15 47.53130 -72.88371 35616 ft 443 kts 243°
2026-05-05 09:15 47.50133 -72.96340 35615 ft 443 kts 243°
2026-05-05 09:16 47.47132 -73.04300 35611 ft 443 kts 243°
2026-05-05 09:16 47.44126 -73.12250 35609 ft 444 kts 243°
2026-05-05 09:17 47.41134 -73.20134 35605 ft 442 kts 243°
2026-05-05 09:17 47.38192 -73.27870 35598 ft 441 kts 243°
2026-05-05 09:18 47.35168 -73.35794 35589 ft 441 kts 243°
2026-05-05 09:18 47.32152 -73.43676 35588 ft 441 kts 243°
2026-05-05 09:19 47.29125 -73.51564 35587 ft 442 kts 243°
2026-05-05 09:19 47.26113 -73.59389 35586 ft 442 kts 243°
2026-05-05 09:20 47.23077 -73.67251 35588 ft 441 kts 243°
2026-05-05 09:20 47.20040 -73.75098 35598 ft 441 kts 242°
2026-05-05 09:21 47.16998 -73.82931 35588 ft 441 kts 242°
2026-05-05 09:21 47.13952 -73.90752 35588 ft 441 kts 242°
2026-05-05 09:22 47.10895 -73.98581 35590 ft 441 kts 242°
2026-05-05 09:22 47.07855 -74.06339 35567 ft 440 kts 242°
2026-05-05 09:23 47.04796 -74.14132 35566 ft 440 kts 242°
2026-05-05 09:23 47.01728 -74.21918 35568 ft 440 kts 242°
2026-05-05 09:24 46.98661 -74.29681 35568 ft 440 kts 242°
2026-05-05 09:24 46.95594 -74.37423 35572 ft 440 kts 242°
2026-05-05 09:25 46.92540 -74.45108 35553 ft 439 kts 242°
2026-05-05 09:25 46.89463 -74.52832 35554 ft 439 kts 242°
2026-05-05 09:26 46.86376 -74.60557 35552 ft 440 kts 242°
2026-05-05 09:26 46.83284 -74.68273 35553 ft 439 kts 242°
2026-05-05 09:27 46.80188 -74.75978 35555 ft 439 kts 242°
2026-05-05 09:27 46.77106 -74.83625 35558 ft 434 kts 242°
2026-05-05 09:28 46.74048 -74.91194 35558 ft 436 kts 242°
2026-05-05 09:28 46.70962 -74.98809 35559 ft 436 kts 241°
2026-05-05 09:29 46.67869 -75.06422 35558 ft 436 kts 241°
2026-05-05 09:29 46.64768 -75.14031 35553 ft 436 kts 241°
2026-05-05 09:30 46.61684 -75.21579 35560 ft 435 kts 241°
2026-05-05 09:30 46.58583 -75.29149 35569 ft 436 kts 241°
2026-05-05 09:31 46.55485 -75.36687 35551 ft 432 kts 241°
2026-05-05 09:31 46.52390 -75.44202 35558 ft 433 kts 241°
2026-05-05 09:32 46.49292 -75.51700 35560 ft 433 kts 241°
2026-05-05 09:32 46.46189 -75.59192 35563 ft 433 kts 241°
2026-05-05 09:33 46.43078 -75.66683 35562 ft 433 kts 241°
2026-05-05 09:33 46.39959 -75.74170 35558 ft 434 kts 241°
2026-05-05 09:34 46.36832 -75.81660 35562 ft 434 kts 241°
2026-05-05 09:34 46.33719 -75.89092 35554 ft 428 kts 240°
2026-05-05 09:35 46.30613 -75.96489 35526 ft 430 kts 240°
2026-05-05 09:35 46.25940 -76.07582 35553 ft 432 kts 240°
2026-05-05 09:36 46.22805 -76.15001 35559 ft 432 kts 240°
2026-05-05 09:36 46.19680 -76.22374 35558 ft 432 kts 240°
2026-05-05 09:37 46.16534 -76.29778 35556 ft 432 kts 240°
2026-05-05 09:37 46.13389 -76.37162 35559 ft 434 kts 240°
2026-05-05 09:38 46.10253 -76.44500 35555 ft 432 kts 240°
2026-05-05 09:38 46.07640 -76.50602 35553 ft 429 kts 240°
2026-05-05 09:39 46.04492 -76.57937 35549 ft 430 kts 240°
2026-05-05 09:39 46.00829 -76.66444 35552 ft 430 kts 240°
2026-05-05 09:40 45.98188 -76.72564 35559 ft 429 kts 240°
2026-05-05 09:40 45.95056 -76.79805 35551 ft 429 kts 240°
2026-05-05 09:41 45.91892 -76.87099 35568 ft 429 kts 240°
2026-05-05 09:41 45.88743 -76.94337 35541 ft 426 kts 239°
2026-05-05 09:42 45.85613 -77.01519 35542 ft 426 kts 239°
2026-05-05 09:42 45.82459 -77.08732 35552 ft 427 kts 239°
2026-05-05 09:43 45.79290 -77.15965 35551 ft 427 kts 239°
2026-05-05 09:43 45.76119 -77.23181 35546 ft 428 kts 239°
2026-05-05 09:44 45.72941 -77.30396 35547 ft 428 kts 239°
2026-05-05 09:44 45.69756 -77.37606 35564 ft 428 kts 239°
2026-05-05 09:45 45.66575 -77.44790 35539 ft 427 kts 239°
2026-05-05 09:45 45.63379 -77.51990 35544 ft 428 kts 239°
2026-05-05 09:46 45.60199 -77.59136 35538 ft 428 kts 239°
2026-05-05 09:46 45.56997 -77.66311 35545 ft 428 kts 239°
2026-05-05 09:47 45.53786 -77.73490 35544 ft 428 kts 239°
2026-05-05 09:47 45.50573 -77.80653 35545 ft 429 kts 239°
2026-05-05 09:48 45.47352 -77.87820 35548 ft 430 kts 239°
2026-05-05 09:48 45.44113 -77.95005 35557 ft 431 kts 239°
2026-05-05 09:49 45.40862 -78.02199 35549 ft 432 kts 239°
2026-05-05 09:49 45.37612 -78.09374 35558 ft 432 kts 239°
2026-05-05 09:50 45.34348 -78.16559 35561 ft 433 kts 239°
2026-05-05 09:50 45.31086 -78.23725 35560 ft 433 kts 239°
2026-05-05 09:51 45.27801 -78.30919 35561 ft 433 kts 239°
2026-05-05 09:51 45.24517 -78.38096 35582 ft 431 kts 238°
2026-05-05 09:52 45.21246 -78.45226 35578 ft 432 kts 238°
2026-05-05 09:52 45.17990 -78.52305 35567 ft 432 kts 238°
2026-05-05 09:53 45.14706 -78.59428 35560 ft 432 kts 238°
2026-05-05 09:53 45.11411 -78.66555 35567 ft 432 kts 238°
2026-05-05 09:54 45.08114 -78.73670 35565 ft 432 kts 238°
2026-05-05 09:54 45.04809 -78.80786 35565 ft 432 kts 238°
2026-05-05 09:55 45.01506 -78.87876 35560 ft 429 kts 238°
2026-05-05 09:55 44.98216 -78.94926 35552 ft 430 kts 238°
2026-05-05 09:56 44.94934 -79.01937 35550 ft 430 kts 238°
2026-05-05 09:56 44.91631 -79.08977 35544 ft 430 kts 238°
2026-05-05 09:57 44.88326 -79.16004 35539 ft 430 kts 238°
2026-05-05 09:57 44.85016 -79.23024 35557 ft 431 kts 238°
2026-05-05 09:58 44.81693 -79.30056 35559 ft 431 kts 238°
2026-05-05 09:58 44.78375 -79.37058 35565 ft 428 kts 238°
2026-05-05 09:59 44.75053 -79.44053 35572 ft 429 kts 238°
2026-05-05 09:59 44.71731 -79.51030 35595 ft 429 kts 238°
2026-05-05 10:00 44.68420 -79.57969 35607 ft 432 kts 238°
2026-05-05 10:00 44.65077 -79.64957 35608 ft 431 kts 238°
2026-05-05 10:01 44.61729 -79.71938 35616 ft 431 kts 238°
2026-05-05 10:01 44.58350 -79.78881 35621 ft 431 kts 234°
2026-05-05 10:02 44.54360 -79.85206 35606 ft 433 kts 230°
2026-05-05 10:02 44.50302 -79.91466 35607 ft 434 kts 230°
2026-05-05 10:03 44.46230 -79.97714 35604 ft 434 kts 230°
2026-05-05 10:03 44.42188 -80.03913 35605 ft 433 kts 230°
2026-05-05 10:04 44.38115 -80.10139 35606 ft 433 kts 230°
2026-05-05 10:04 44.34040 -80.16359 35603 ft 434 kts 230°
2026-05-05 10:05 44.29945 -80.22592 35606 ft 436 kts 230°
2026-05-05 10:05 44.25836 -80.28834 35606 ft 436 kts 230°
2026-05-05 10:06 44.21760 -80.35013 35612 ft 436 kts 230°
2026-05-05 10:06 44.17632 -80.41257 35604 ft 439 kts 230°
2026-05-05 10:07 44.13504 -80.47485 35607 ft 438 kts 230°
2026-05-05 10:07 44.09360 -80.53725 35607 ft 438 kts 230°
2026-05-05 10:08 44.05218 -80.59947 35601 ft 437 kts 230°
2026-05-05 10:08 44.01071 -80.66165 35611 ft 441 kts 230°
2026-05-05 10:09 43.96909 -80.72389 35602 ft 439 kts 230°
2026-05-05 10:09 43.92772 -80.78564 35604 ft 439 kts 230°
2026-05-05 10:10 43.88611 -80.84760 35605 ft 438 kts 230°
2026-05-05 10:10 43.84442 -80.90956 35605 ft 441 kts 230°
2026-05-05 10:11 43.80240 -80.97185 35612 ft 441 kts 230°
2026-05-05 10:11 43.76040 -81.03398 35612 ft 442 kts 230°
2026-05-05 10:12 43.71864 -81.09562 35615 ft 441 kts 230°
2026-05-05 10:12 43.67662 -81.15751 35604 ft 441 kts 230°
2026-05-05 10:13 43.63445 -81.21949 35604 ft 443 kts 230°
2026-05-05 10:13 43.59223 -81.28140 35604 ft 442 kts 230°
2026-05-05 10:14 43.54990 -81.34333 35612 ft 443 kts 230°
2026-05-05 10:14 43.50882 -81.40330 35617 ft 443 kts 230°
2026-05-05 10:15 43.46630 -81.46527 35610 ft 445 kts 229°
2026-05-05 10:15 43.42381 -81.52701 35614 ft 444 kts 229°
2026-05-05 10:16 43.38127 -81.58874 35615 ft 444 kts 229°
2026-05-05 10:16 43.33865 -81.65042 35619 ft 445 kts 229°
2026-05-05 10:17 43.29574 -81.71241 35628 ft 450 kts 229°
2026-05-05 10:17 43.25300 -81.77396 35625 ft 449 kts 229°
2026-05-05 10:18 43.20981 -81.83607 35630 ft 448 kts 229°
2026-05-05 10:18 43.16677 -81.89783 35632 ft 448 kts 229°
2026-05-05 10:19 43.12365 -81.95957 35647 ft 451 kts 229°
2026-05-05 10:19 43.08031 -82.02147 35666 ft 449 kts 229°
2026-05-05 10:20 43.03732 -82.08276 35664 ft 449 kts 229°
2026-05-05 10:20 42.99404 -82.14430 35670 ft 449 kts 229°
2026-05-05 10:21 42.95073 -82.20578 35676 ft 449 kts 229°
2026-05-05 10:21 42.90737 -82.26718 35668 ft 448 kts 229°
2026-05-05 10:22 42.86410 -82.32833 35636 ft 448 kts 229°
2026-05-05 10:22 42.82073 -82.38948 35635 ft 448 kts 229°
2026-05-05 10:23 42.77756 -82.45022 35641 ft 447 kts 229°
2026-05-05 10:23 42.73393 -82.51150 35645 ft 451 kts 229°
2026-05-05 10:24 42.69032 -82.57258 35635 ft 451 kts 229°
2026-05-05 10:24 42.64664 -82.63364 35640 ft 450 kts 229°
2026-05-05 10:25 42.60295 -82.69458 35645 ft 449 kts 229°
2026-05-05 10:25 42.55958 -82.75497 35645 ft 450 kts 229°
2026-05-05 10:26 42.51580 -82.81577 35650 ft 452 kts 229°
2026-05-05 10:26 42.47183 -82.87671 35672 ft 451 kts 229°
2026-05-05 10:27 42.42790 -82.93749 35682 ft 452 kts 229°
2026-05-05 10:27 42.39131 -82.98799 35664 ft 452 kts 229°
2026-05-05 10:28 42.34712 -83.04888 35669 ft 454 kts 229°
2026-05-05 10:28 42.30284 -83.10975 35669 ft 454 kts 229°
2026-05-05 10:29 42.25851 -83.17057 35686 ft 454 kts 229°
2026-05-05 10:29 42.21407 -83.23141 35690 ft 455 kts 229°
2026-05-05 10:30 42.16977 -83.29192 35688 ft 457 kts 229°
2026-05-05 10:30 42.12519 -83.35267 35685 ft 455 kts 229°
2026-05-05 10:31 42.08060 -83.41334 35701 ft 455 kts 229°
2026-05-05 10:31 42.03083 -83.46693 35702 ft 465 kts 214°
2026-05-05 10:32 41.97256 -83.50534 35704 ft 471 kts 211°
2026-05-05 10:32 41.91323 -83.54274 35716 ft 471 kts 210°
2026-05-05 10:33 41.85366 -83.58026 35729 ft 471 kts 211°
2026-05-05 10:33 41.79412 -83.61768 35727 ft 472 kts 210°
2026-05-05 10:34 41.73451 -83.65507 35720 ft 473 kts 210°
2026-05-05 10:34 41.67521 -83.69218 35721 ft 473 kts 210°
2026-05-05 10:35 41.61552 -83.72947 35715 ft 473 kts 210°
2026-05-05 10:35 41.55571 -83.76676 35706 ft 475 kts 210°
2026-05-05 10:36 41.49577 -83.80402 35706 ft 474 kts 210°
2026-05-05 10:36 41.43593 -83.84119 35704 ft 474 kts 210°
2026-05-05 10:37 41.37603 -83.87829 35708 ft 475 kts 210°
2026-05-05 10:37 41.31630 -83.91522 35730 ft 475 kts 211°
2026-05-05 10:38 41.25607 -83.95238 35747 ft 477 kts 211°
2026-05-05 10:38 41.19589 -83.98943 35753 ft 477 kts 211°
2026-05-05 10:39 41.13539 -84.02662 35755 ft 479 kts 211°
2026-05-05 10:39 41.07485 -84.06372 35755 ft 478 kts 211°
2026-05-05 10:40 41.01484 -84.10047 35756 ft 478 kts 211°
2026-05-05 10:40 40.95433 -84.13741 35751 ft 479 kts 211°
2026-05-05 10:41 40.89358 -84.17444 35752 ft 480 kts 211°
2026-05-05 10:41 40.83290 -84.21135 35753 ft 480 kts 211°
2026-05-05 10:42 40.74248 -84.26614 35762 ft 468 kts 212°
2026-05-05 10:43 40.68333 -84.30206 35768 ft 471 kts 212°
2026-05-05 10:43 40.62376 -84.33796 35772 ft 470 kts 212°
2026-05-05 10:44 40.56424 -84.37388 35774 ft 470 kts 212°
2026-05-05 10:44 40.50470 -84.40969 35767 ft 470 kts 212°
2026-05-05 10:45 40.44555 -84.44521 35769 ft 469 kts 212°
2026-05-05 10:45 40.38609 -84.48085 35778 ft 470 kts 212°
2026-05-05 10:46 40.32664 -84.51639 35785 ft 470 kts 213°
2026-05-05 10:46 40.26695 -84.55205 35792 ft 471 kts 213°
2026-05-05 10:47 40.20730 -84.58758 35790 ft 471 kts 213°
2026-05-05 10:47 40.14766 -84.62305 35789 ft 470 kts 213°
2026-05-05 10:48 40.08789 -84.65857 35793 ft 477 kts 213°
2026-05-05 10:48 40.02796 -84.69398 35800 ft 473 kts 213°
2026-05-05 10:49 39.96771 -84.72967 35809 ft 474 kts 213°
2026-05-05 10:49 39.90756 -84.76513 35792 ft 474 kts 213°
2026-05-05 10:50 39.84679 -84.80098 35812 ft 480 kts 213°
2026-05-05 10:50 39.78624 -84.83650 35812 ft 480 kts 213°
2026-05-05 10:51 39.72529 -84.87229 35811 ft 480 kts 213°
2026-05-05 10:51 39.66429 -84.90801 35819 ft 484 kts 213°
2026-05-05 10:52 39.60243 -84.94416 35842 ft 487 kts 213°
2026-05-05 10:52 39.54051 -84.98026 35859 ft 488 kts 213°
2026-05-05 10:53 39.47850 -85.01636 35856 ft 488 kts 213°
2026-05-05 10:53 39.41621 -85.05257 35845 ft 492 kts 213°
2026-05-05 10:54 39.35395 -85.08863 35836 ft 493 kts 213°
2026-05-05 10:54 39.29128 -85.12490 35838 ft 493 kts 213°
2026-05-05 10:55 39.22858 -85.16111 35842 ft 496 kts 213°
2026-05-05 10:55 39.16520 -85.19764 35842 ft 498 kts 213°
2026-05-05 10:56 39.10187 -85.23407 35848 ft 499 kts 213°
2026-05-05 10:56 39.03879 -85.27028 35851 ft 498 kts 213°
2026-05-05 10:57 38.97515 -85.30678 35856 ft 502 kts 213°
2026-05-05 10:57 38.91133 -85.34322 35900 ft 501 kts 213°
2026-05-05 10:58 38.84758 -85.37963 35916 ft 501 kts 213°
2026-05-05 10:58 38.78419 -85.41572 35925 ft 502 kts 213°
2026-05-05 10:59 38.72025 -85.45205 35925 ft 499 kts 213°
2026-05-05 10:59 38.65632 -85.48836 35858 ft 502 kts 213°
2026-05-05 11:00 38.59242 -85.52452 35871 ft 502 kts 213°
2026-05-05 11:00 38.52826 -85.56082 35882 ft 508 kts 213°
2026-05-05 11:01 38.46367 -85.59718 35896 ft 507 kts 213°
2026-05-05 11:01 38.39957 -85.63330 35903 ft 507 kts 213°
2026-05-05 11:02 38.33497 -85.66959 35906 ft 507 kts 213°
2026-05-05 11:02 38.27043 -85.70578 35925 ft 506 kts 213°
2026-05-05 11:03 38.20590 -85.74189 35913 ft 506 kts 213°
2026-05-05 11:03 38.14312 -85.77696 35912 ft 506 kts 213°
2026-05-05 11:04 38.07842 -85.81304 35912 ft 511 kts 214°
2026-05-05 11:04 38.01387 -85.84889 35893 ft 509 kts 214°
2026-05-05 11:05 37.95081 -85.88400 35898 ft 509 kts 213°
2026-05-05 11:05 37.88587 -85.91994 35891 ft 509 kts 213°
2026-05-05 11:06 37.82092 -85.95590 35890 ft 510 kts 214°
2026-05-05 11:06 37.75583 -85.99181 35908 ft 510 kts 214°
2026-05-05 11:07 37.69079 -86.02767 35910 ft 510 kts 214°
2026-05-05 11:07 37.62560 -86.06350 35910 ft 510 kts 214°
2026-05-05 11:08 37.56078 -86.09910 35897 ft 510 kts 214°
2026-05-05 11:08 37.49561 -86.13481 35891 ft 510 kts 214°
2026-05-05 11:09 37.43045 -86.17045 35888 ft 511 kts 214°
2026-05-05 11:09 37.36505 -86.20616 35887 ft 514 kts 215°
2026-05-05 11:10 37.29997 -86.24158 35887 ft 512 kts 215°
2026-05-05 11:10 37.23448 -86.27722 35902 ft 512 kts 215°
2026-05-05 11:11 37.16896 -86.31276 35898 ft 512 kts 215°
2026-05-05 11:11 37.10313 -86.34845 35924 ft 514 kts 215°
2026-05-05 11:12 37.03738 -86.38397 35930 ft 515 kts 216°
2026-05-05 11:12 36.97155 -86.41950 35929 ft 514 kts 215°
2026-05-05 11:13 36.90639 -86.45528 35931 ft 517 kts 217°
2026-05-05 11:13 36.84046 -86.49174 35927 ft 518 kts 216°
2026-05-05 11:14 36.77450 -86.52789 35923 ft 518 kts 216°
2026-05-05 11:14 36.70854 -86.56417 35919 ft 517 kts 216°
2026-05-05 11:15 36.64225 -86.60047 35933 ft 522 kts 217°
2026-05-05 11:15 36.57645 -86.63639 35939 ft 521 kts 217°
2026-05-05 11:16 36.51007 -86.67262 35945 ft 521 kts 217°
2026-05-05 11:16 36.45485 -86.70269 35928 ft 521 kts 217°
2026-05-05 11:17 36.38820 -86.73895 35928 ft 522 kts 217°
2026-05-05 11:17 36.32151 -86.77511 35925 ft 522 kts 217°
2026-05-05 11:18 36.25495 -86.81119 35914 ft 522 kts 217°
2026-05-05 11:18 36.18821 -86.84726 35934 ft 524 kts 217°
2026-05-05 11:19 36.12106 -86.88349 35933 ft 524 kts 217°
2026-05-05 11:19 36.05455 -86.91934 35930 ft 525 kts 217°
2026-05-05 11:20 35.98759 -86.95532 35932 ft 524 kts 217°
2026-05-05 11:20 35.92104 -86.99104 35934 ft 523 kts 217°
2026-05-05 11:21 35.85444 -87.02671 35937 ft 521 kts 217°
2026-05-05 11:21 35.78782 -87.06235 35935 ft 521 kts 217°
2026-05-05 11:22 35.72120 -87.09790 35939 ft 522 kts 217°
2026-05-05 11:22 35.65423 -87.13362 35938 ft 525 kts 217°
2026-05-05 11:23 35.58720 -87.16920 35936 ft 525 kts 217°
2026-05-05 11:23 35.52055 -87.20461 35935 ft 525 kts 216°
2026-05-05 11:24 35.45347 -87.24012 35932 ft 524 kts 216°
2026-05-05 11:24 35.38616 -87.27575 35939 ft 525 kts 216°
2026-05-05 11:25 35.31898 -87.31118 35931 ft 525 kts 216°
2026-05-05 11:25 35.25193 -87.34651 35941 ft 522 kts 216°
2026-05-05 11:26 35.18516 -87.38168 35942 ft 524 kts 216°
2026-05-05 11:26 35.11850 -87.41664 35938 ft 524 kts 216°
2026-05-05 11:27 35.05142 -87.45181 35943 ft 524 kts 216°
2026-05-05 11:27 34.98436 -87.48689 35946 ft 524 kts 216°
2026-05-05 11:28 34.91723 -87.52198 35950 ft 527 kts 216°
2026-05-05 11:28 34.85042 -87.55675 35955 ft 525 kts 216°
2026-05-05 11:29 34.78321 -87.59176 35955 ft 525 kts 216°
2026-05-05 11:29 34.71597 -87.62667 35954 ft 524 kts 216°
2026-05-05 11:30 34.65060 -87.66061 35957 ft 526 kts 216°
2026-05-05 11:30 34.58368 -87.69520 35950 ft 526 kts 216°
2026-05-05 11:31 34.51635 -87.72999 35945 ft 523 kts 216°
2026-05-05 11:31 34.44937 -87.76455 35900 ft 523 kts 216°
2026-05-05 11:32 34.38242 -87.79905 35935 ft 523 kts 216°
2026-05-05 11:32 34.31746 -87.83240 35937 ft 522 kts 216°
2026-05-05 11:33 34.25088 -87.86660 35930 ft 522 kts 216°
2026-05-05 11:33 34.18391 -87.90088 35912 ft 522 kts 216°
2026-05-05 11:34 34.11691 -87.93517 35931 ft 523 kts 217°
2026-05-05 11:34 34.04984 -87.96939 35932 ft 523 kts 216°
2026-05-05 11:35 33.98283 -88.00355 35935 ft 522 kts 217°
2026-05-05 11:35 33.91636 -88.03737 35942 ft 522 kts 216°
2026-05-05 11:36 33.84912 -88.07151 35930 ft 523 kts 216°
2026-05-05 11:36 33.78209 -88.10547 35930 ft 520 kts 216°
2026-05-05 11:37 33.71573 -88.13911 35928 ft 521 kts 216°
2026-05-05 11:37 33.64899 -88.17280 35926 ft 520 kts 216°
2026-05-05 11:38 33.58203 -88.20661 35925 ft 521 kts 216°
2026-05-05 11:38 33.51520 -88.24024 35926 ft 521 kts 216°
2026-05-05 11:39 33.44827 -88.27391 35929 ft 522 kts 216°
2026-05-05 11:39 33.38136 -88.30747 35950 ft 521 kts 216°
2026-05-05 11:40 33.31455 -88.34096 35952 ft 520 kts 216°
2026-05-05 11:40 33.24817 -88.37416 35953 ft 520 kts 216°
2026-05-05 11:41 33.18133 -88.40755 35951 ft 521 kts 216°
2026-05-05 11:41 33.11452 -88.44083 35954 ft 518 kts 216°
2026-05-05 11:42 33.04767 -88.47415 35939 ft 519 kts 216°
2026-05-05 11:42 32.98159 -88.50691 35958 ft 515 kts 216°
2026-05-05 11:43 32.91540 -88.53983 35968 ft 514 kts 216°
2026-05-05 11:43 32.84974 -88.57232 35979 ft 514 kts 216°
2026-05-05 11:44 32.78363 -88.60504 35990 ft 514 kts 215°
2026-05-05 11:44 32.71753 -88.63765 35955 ft 514 kts 215°
2026-05-05 11:45 32.65137 -88.67028 35974 ft 515 kts 215°
2026-05-05 11:45 32.58515 -88.70287 35980 ft 516 kts 215°
2026-05-05 11:46 32.51918 -88.73528 35969 ft 516 kts 215°
2026-05-05 11:46 32.45290 -88.76780 35968 ft 516 kts 215°
2026-05-05 11:47 32.38694 -88.80074 35975 ft 508 kts 219°
2026-05-05 11:47 32.35662 -88.82117 35988 ft 494 kts 226°
2026-05-05 11:47 32.32777 -88.84343 35994 ft 496 kts 225°
2026-05-05 11:48 32.24110 -88.91016 35992 ft 496 kts 225°
2026-05-05 11:48 32.18329 -88.95461 35986 ft 495 kts 225°
2026-05-05 11:49 32.12597 -88.99862 35985 ft 494 kts 225°
2026-05-05 11:49 32.06831 -89.04285 35943 ft 495 kts 225°
2026-05-05 11:50 32.01012 -89.08740 35990 ft 497 kts 225°
2026-05-05 11:50 31.95212 -89.13171 35988 ft 497 kts 225°
2026-05-05 11:51 31.89406 -89.17603 35991 ft 497 kts 225°
2026-05-05 11:51 31.83647 -89.21991 35990 ft 496 kts 225°
2026-05-05 11:52 31.77854 -89.26398 35995 ft 496 kts 224°
2026-05-05 11:52 31.72022 -89.30829 35995 ft 497 kts 224°
2026-05-05 11:53 31.66193 -89.35252 35995 ft 499 kts 224°
2026-05-05 11:53 31.60359 -89.39669 36001 ft 498 kts 224°
2026-05-05 11:54 31.54576 -89.44042 36001 ft 497 kts 224°
2026-05-05 11:54 31.48742 -89.48452 36057 ft 500 kts 224°
2026-05-05 11:55 31.45817 -89.50654 36488 ft 498 kts 224°
2026-05-05 11:55 31.42907 -89.52842 36973 ft 495 kts 224°
2026-05-05 11:55 31.40017 -89.55020 37423 ft 493 kts 224°
2026-05-05 11:55 31.37136 -89.57192 37860 ft 491 kts 225°
2026-05-05 11:56 31.34262 -89.59353 38267 ft 490 kts 225°
2026-05-05 11:56 31.31402 -89.61501 38678 ft 488 kts 225°
2026-05-05 11:56 31.28548 -89.63643 39003 ft 487 kts 225°
2026-05-05 11:56 31.25735 -89.65755 39325 ft 485 kts 225°
2026-05-05 11:57 31.22897 -89.67885 39602 ft 484 kts 225°
2026-05-05 11:57 31.20061 -89.70009 39897 ft 484 kts 225°
2026-05-05 11:57 31.14400 -89.74242 39983 ft 478 kts 225°
2026-05-05 11:58 31.08791 -89.78442 39988 ft 478 kts 225°
2026-05-05 11:58 31.03213 -89.82601 39986 ft 478 kts 225°
2026-05-05 11:59 30.97603 -89.86784 39985 ft 478 kts 225°
2026-05-05 11:59 30.91974 -89.90977 39997 ft 483 kts 224°
2026-05-05 12:00 30.86361 -89.95140 39992 ft 480 kts 224°
2026-05-05 12:00 30.80728 -89.99327 39991 ft 480 kts 224°
2026-05-05 12:01 30.75105 -90.03490 39988 ft 478 kts 224°
2026-05-05 12:01 30.69488 -90.07650 39985 ft 478 kts 224°
2026-05-05 12:02 30.63873 -90.11799 39983 ft 478 kts 224°
2026-05-05 12:02 30.58257 -90.15943 39982 ft 478 kts 224°
2026-05-05 12:03 30.52670 -90.20062 39981 ft 479 kts 224°
2026-05-05 12:03 30.47040 -90.24204 39983 ft 479 kts 224°
2026-05-05 12:04 30.41407 -90.28345 39983 ft 479 kts 224°
2026-05-05 12:04 30.36722 -90.31784 39994 ft 480 kts 224°
2026-05-05 12:05 30.31070 -90.35925 39998 ft 480 kts 224°
2026-05-05 12:05 30.24525 -90.40717 39979 ft 477 kts 223°
2026-05-05 12:06 30.19848 -90.44136 39984 ft 477 kts 224°
2026-05-05 12:06 30.14224 -90.48242 39982 ft 478 kts 223°
2026-05-05 12:07 30.08592 -90.52349 39984 ft 479 kts 223°
2026-05-05 12:07 30.02938 -90.56464 39986 ft 480 kts 223°
2026-05-05 12:08 29.97332 -90.60540 39983 ft 479 kts 223°
2026-05-05 12:08 29.91690 -90.64637 39982 ft 479 kts 223°
2026-05-05 12:09 29.86043 -90.68731 39983 ft 479 kts 223°
2026-05-05 12:09 29.80401 -90.72817 39990 ft 479 kts 223°
2026-05-05 12:10 29.74759 -90.76897 39974 ft 480 kts 223°
2026-05-05 12:10 29.69115 -90.80973 39987 ft 478 kts 223°
2026-05-05 12:11 29.66457 -90.83195 40004 ft 466 kts 231°
2026-05-05 12:11 29.64134 -90.85748 40003 ft 457 kts 237°
2026-05-05 12:11 29.59779 -90.91096 39998 ft 458 kts 237°
2026-05-05 12:12 29.55458 -90.96413 39996 ft 457 kts 237°
2026-05-05 12:12 29.51107 -91.01753 39981 ft 458 kts 237°
2026-05-05 12:13 29.46749 -91.07097 39977 ft 459 kts 237°
2026-05-05 12:13 29.42386 -91.12438 39978 ft 458 kts 237°
2026-05-05 12:14 29.38029 -91.17765 39979 ft 458 kts 236°
2026-05-05 12:14 29.33661 -91.23099 39981 ft 459 kts 236°
2026-05-05 12:15 29.29295 -91.28422 39982 ft 458 kts 236°
2026-05-05 12:15 29.24932 -91.33735 39981 ft 457 kts 236°
2026-05-05 12:16 29.20591 -91.39016 39969 ft 460 kts 236°
2026-05-05 12:16 29.16202 -91.44343 39972 ft 459 kts 236°
2026-05-05 12:17 29.11900 -91.49563 39962 ft 458 kts 236°
2026-05-05 12:17 29.07521 -91.54868 39966 ft 458 kts 236°
2026-05-05 12:18 29.03156 -91.60148 39961 ft 460 kts 235°
2026-05-05 12:18 28.98761 -91.65457 39964 ft 460 kts 235°
2026-05-05 12:19 28.94365 -91.70760 39939 ft 460 kts 235°
2026-05-05 12:19 28.90062 -91.75948 39962 ft 462 kts 235°
2026-05-05 12:20 28.85671 -91.81227 39959 ft 461 kts 235°
2026-05-05 12:20 28.81253 -91.86539 39957 ft 461 kts 235°
2026-05-05 12:21 28.76837 -91.91838 39960 ft 460 kts 235°
2026-05-05 12:21 28.72423 -91.97131 39955 ft 461 kts 234°
2026-05-05 12:22 28.67993 -92.02433 39962 ft 462 kts 234°
2026-05-05 12:22 28.63581 -92.07707 39962 ft 462 kts 234°
2026-05-05 12:23 28.59125 -92.13027 39958 ft 463 kts 234°
2026-05-05 12:23 28.54681 -92.18325 39951 ft 463 kts 234°
2026-05-05 12:24 28.50232 -92.23624 39949 ft 463 kts 234°
2026-05-05 12:24 28.45779 -92.28919 39950 ft 463 kts 234°
2026-05-05 12:25 28.41359 -92.34169 39947 ft 462 kts 234°
2026-05-05 12:25 28.36910 -92.39446 39947 ft 462 kts 234°
2026-05-05 12:26 28.32457 -92.44723 39950 ft 465 kts 234°
2026-05-05 12:26 28.27974 -92.50024 39952 ft 464 kts 234°
2026-05-05 12:27 28.23528 -92.55279 39956 ft 464 kts 234°
2026-05-05 12:27 28.19051 -92.60564 39949 ft 464 kts 234°
2026-05-05 12:28 28.14574 -92.65842 39948 ft 464 kts 234°
2026-05-05 12:28 28.09908 -92.70917 39965 ft 471 kts 224°
2026-05-05 12:29 28.04344 -92.74954 39952 ft 479 kts 219°
2026-05-05 12:29 27.98645 -92.78905 39943 ft 480 kts 219°
2026-05-05 12:30 27.92940 -92.82862 39946 ft 480 kts 219°
2026-05-05 12:30 27.87265 -92.86791 39947 ft 481 kts 219°
2026-05-05 12:31 27.81548 -92.90744 39946 ft 481 kts 219°
2026-05-05 12:31 27.75841 -92.94686 39946 ft 481 kts 219°
2026-05-05 12:32 27.70124 -92.98630 39947 ft 481 kts 219°
2026-05-05 12:32 27.64419 -93.02560 39947 ft 481 kts 219°
2026-05-05 12:33 27.58706 -93.06491 39941 ft 479 kts 219°
2026-05-05 12:33 27.53038 -93.10387 39938 ft 478 kts 219°
2026-05-05 12:34 27.47400 -93.14257 39936 ft 478 kts 219°
2026-05-05 12:34 27.41708 -93.18154 39946 ft 479 kts 219°
2026-05-05 12:35 27.36000 -93.22060 39938 ft 479 kts 218°
2026-05-05 12:35 27.30303 -93.25953 39940 ft 479 kts 219°
2026-05-05 12:36 27.24605 -93.29843 39938 ft 479 kts 218°
2026-05-05 12:36 27.18904 -93.33728 39931 ft 478 kts 218°
2026-05-05 12:37 27.13247 -93.37580 39927 ft 479 kts 218°
2026-05-05 12:37 27.07532 -93.41468 39934 ft 481 kts 218°
2026-05-05 12:38 27.01806 -93.45355 39935 ft 480 kts 218°
2026-05-05 12:38 26.96096 -93.49230 39934 ft 479 kts 218°
2026-05-05 12:39 26.90383 -93.53101 39936 ft 479 kts 218°
2026-05-05 12:39 26.84672 -93.56966 39933 ft 480 kts 218°
2026-05-05 12:40 26.78938 -93.60845 39931 ft 485 kts 218°
2026-05-05 12:40 26.73205 -93.64711 39930 ft 483 kts 218°
2026-05-05 12:41 26.67456 -93.68591 39927 ft 483 kts 218°
2026-05-05 12:41 26.61701 -93.72466 39926 ft 483 kts 218°
2026-05-05 12:42 26.55944 -93.76339 39931 ft 483 kts 218°
2026-05-05 12:42 26.50187 -93.80215 39938 ft 483 kts 218°
2026-05-05 12:43 26.44388 -93.84123 39924 ft 485 kts 217°
2026-05-05 12:43 26.38636 -93.87988 39925 ft 486 kts 217°
2026-05-05 12:44 26.32838 -93.91885 39931 ft 486 kts 217°
2026-05-05 12:44 26.27042 -93.95772 39933 ft 486 kts 217°
2026-05-05 12:45 26.21238 -93.99662 39930 ft 486 kts 217°
2026-05-05 12:45 26.15420 -94.03556 39927 ft 489 kts 217°
2026-05-05 12:46 26.09630 -94.07424 39925 ft 487 kts 217°
2026-05-05 12:46 26.03815 -94.11309 39922 ft 487 kts 217°
2026-05-05 12:47 25.97996 -94.15189 39915 ft 487 kts 217°
2026-05-05 12:47 25.92167 -94.19072 39918 ft 488 kts 217°
2026-05-05 12:48 25.86389 -94.22916 39923 ft 486 kts 217°
2026-05-05 12:48 25.80580 -94.26778 39924 ft 487 kts 217°
2026-05-05 12:49 25.74826 -94.30597 39925 ft 487 kts 217°
2026-05-05 12:49 25.69003 -94.34459 39926 ft 487 kts 217°
2026-05-05 12:50 25.63224 -94.38286 39921 ft 487 kts 217°
2026-05-05 12:50 25.57408 -94.42133 39903 ft 487 kts 217°
2026-05-05 12:51 25.51580 -94.45985 39923 ft 487 kts 217°
2026-05-05 12:51 25.45752 -94.49832 39920 ft 488 kts 217°
2026-05-05 12:52 25.39908 -94.53684 39915 ft 488 kts 217°
2026-05-05 12:52 25.34069 -94.57529 39913 ft 488 kts 217°
2026-05-05 12:53 25.28223 -94.61233 39924 ft 487 kts 216°
2026-05-05 12:53 25.22354 -94.64985 39928 ft 488 kts 215°
2026-05-05 12:54 25.13475 -94.70558 39933 ft 489 kts 215°
2026-05-05 12:55 25.08562 -94.73655 39928 ft 489 kts 215°
2026-05-05 12:55 25.02636 -94.77373 39926 ft 489 kts 215°
2026-05-05 12:56 24.96733 -94.81083 39927 ft 488 kts 215°
2026-05-05 12:56 24.90857 -94.84767 39921 ft 489 kts 214°
2026-05-05 12:57 24.84928 -94.88481 39914 ft 490 kts 214°
2026-05-05 12:57 24.79009 -94.92201 39915 ft 489 kts 214°
2026-05-05 12:58 24.73107 -94.95917 39915 ft 489 kts 214°
2026-05-05 12:58 24.67179 -94.99637 39917 ft 491 kts 214°
2026-05-05 12:59 24.61240 -95.03364 39913 ft 491 kts 213°
2026-05-05 12:59 24.55336 -95.07063 39915 ft 492 kts 213°
2026-05-05 13:00 24.46422 -95.12642 39915 ft 491 kts 213°
2026-05-05 13:01 24.34539 -95.20032 39910 ft 491 kts 213°
2026-05-05 13:01 24.28598 -95.23727 39907 ft 490 kts 213°
2026-05-05 13:02 24.22652 -95.27418 39913 ft 492 kts 213°
2026-05-05 13:02 24.16698 -95.31112 39910 ft 492 kts 213°
2026-05-05 13:03 24.10754 -95.34793 39904 ft 487 kts 213°
2026-05-05 13:03 24.04863 -95.38441 39905 ft 488 kts 213°
2026-05-05 13:04 23.98948 -95.42097 39909 ft 487 kts 213°
2026-05-05 13:04 23.93072 -95.45728 39915 ft 491 kts 213°
2026-05-05 13:05 23.87134 -95.49389 39914 ft 489 kts 213°
2026-05-05 13:05 23.81199 -95.53049 39913 ft 489 kts 213°
2026-05-05 13:06 23.75265 -95.56701 39911 ft 490 kts 213°
2026-05-05 13:06 23.69357 -95.60335 39912 ft 490 kts 213°
2026-05-05 13:07 23.63407 -95.63990 39907 ft 491 kts 213°
2026-05-05 13:07 23.57428 -95.67656 39909 ft 492 kts 213°
2026-05-05 13:08 23.51460 -95.71313 39907 ft 491 kts 213°
2026-05-05 13:08 23.45504 -95.74957 39906 ft 489 kts 213°
2026-05-05 13:09 23.39598 -95.78570 39905 ft 490 kts 213°
2026-05-05 13:09 23.33646 -95.82204 39905 ft 490 kts 213°
2026-05-05 13:10 23.27691 -95.85838 39909 ft 492 kts 212°
2026-05-05 13:10 23.21708 -95.89484 39910 ft 492 kts 212°
2026-05-05 13:11 23.15738 -95.93119 39914 ft 492 kts 212°
2026-05-05 13:11 23.09777 -95.96754 39910 ft 491 kts 212°
2026-05-05 13:12 23.03855 -96.00362 39907 ft 491 kts 212°
2026-05-05 13:12 22.97892 -96.03975 39902 ft 490 kts 212°
2026-05-05 13:13 22.91937 -96.07589 39908 ft 490 kts 212°
2026-05-05 13:13 22.85969 -96.11202 39904 ft 491 kts 212°
2026-05-05 13:14 22.79994 -96.14819 39904 ft 492 kts 212°
2026-05-05 13:14 22.74011 -96.18435 39906 ft 491 kts 212°
2026-05-05 13:15 22.68040 -96.22042 39907 ft 490 kts 212°
2026-05-05 13:15 22.62120 -96.25614 39905 ft 491 kts 212°
2026-05-05 13:16 22.56135 -96.29220 39908 ft 492 kts 212°
2026-05-05 13:16 22.50152 -96.32823 39908 ft 492 kts 212°
2026-05-05 13:17 22.44161 -96.36426 39906 ft 492 kts 212°
2026-05-05 13:17 22.38216 -96.39999 39901 ft 491 kts 211°
2026-05-05 13:18 22.32235 -96.43589 39893 ft 491 kts 211°
2026-05-05 13:18 22.26233 -96.47189 39897 ft 493 kts 211°
2026-05-05 13:19 22.20238 -96.50780 39893 ft 492 kts 211°
2026-05-05 13:19 22.14239 -96.54371 39893 ft 492 kts 211°
2026-05-05 13:20 22.08245 -96.57957 39895 ft 492 kts 211°
2026-05-05 13:20 22.02254 -96.61537 39893 ft 492 kts 211°
2026-05-05 13:21 21.96296 -96.65095 39900 ft 493 kts 211°
2026-05-05 13:21 21.90280 -96.68684 39898 ft 494 kts 211°
2026-05-05 13:22 21.84264 -96.72268 39896 ft 493 kts 211°
2026-05-05 13:22 21.78247 -96.75851 39891 ft 493 kts 211°
2026-05-05 13:23 21.72264 -96.79409 39893 ft 493 kts 211°
2026-05-05 13:23 21.66259 -96.82978 39893 ft 493 kts 211°
2026-05-05 13:24 21.60258 -96.86538 39891 ft 492 kts 211°
2026-05-05 13:24 21.54262 -96.90093 39890 ft 491 kts 211°
2026-05-05 13:25 21.48302 -96.93623 39889 ft 492 kts 211°
2026-05-05 13:25 21.42296 -96.97177 39889 ft 492 kts 211°
2026-05-05 13:26 21.36300 -97.00722 39885 ft 492 kts 211°
2026-05-05 13:26 21.30301 -97.04265 39887 ft 492 kts 211°
2026-05-05 13:27 21.24328 -97.07789 39890 ft 492 kts 211°
2026-05-05 13:27 21.18316 -97.11333 39891 ft 492 kts 211°
2026-05-05 13:28 21.12298 -97.14877 39889 ft 493 kts 211°
2026-05-05 13:28 21.06317 -97.18396 39893 ft 493 kts 211°
2026-05-05 13:29 21.00301 -97.21933 39895 ft 493 kts 211°
2026-05-05 13:29 20.94282 -97.25469 39888 ft 494 kts 210°
2026-05-05 13:30 20.88261 -97.29000 39890 ft 493 kts 210°
2026-05-05 13:30 20.82241 -97.32531 39894 ft 493 kts 210°
2026-05-05 13:31 20.76265 -97.36030 39891 ft 492 kts 210°
2026-05-05 13:31 20.70254 -97.39548 39889 ft 492 kts 210°
2026-05-05 13:32 20.64237 -97.43065 39886 ft 492 kts 210°
2026-05-05 13:32 20.58695 -97.47314 39923 ft 492 kts 228°
2026-05-05 13:33 20.54231 -97.52857 39920 ft 491 kts 231°
2026-05-05 13:33 20.49861 -97.58407 39922 ft 491 kts 231°
2026-05-05 13:34 20.45436 -97.63976 39924 ft 491 kts 231°
2026-05-05 13:34 20.41026 -97.69546 39931 ft 491 kts 231°
2026-05-05 13:35 20.36609 -97.75104 39938 ft 491 kts 230°
2026-05-05 13:35 20.32192 -97.80666 39929 ft 491 kts 230°
2026-05-05 13:36 20.27793 -97.86197 39949 ft 494 kts 230°
2026-05-05 13:36 20.23344 -97.91783 39966 ft 493 kts 230°
2026-05-05 13:37 20.18913 -97.97345 39971 ft 492 kts 230°
2026-05-05 13:37 20.14491 -98.02888 39994 ft 491 kts 231°
2026-05-05 13:38 20.10067 -98.08425 40030 ft 492 kts 230°
2026-05-05 13:38 20.05661 -98.13926 40027 ft 491 kts 230°
2026-05-05 13:39 20.02037 -98.20018 40081 ft 488 kts 250°
2026-05-05 13:39 20.00335 -98.27005 40114 ft 489 kts 258°
2026-05-05 13:40 19.98926 -98.34065 40109 ft 490 kts 258°
2026-05-05 13:40 19.97503 -98.41077 40118 ft 487 kts 258°
2026-05-05 13:41 19.96072 -98.48157 40116 ft 486 kts 258°
2026-05-05 13:41 19.94643 -98.55193 40111 ft 481 kts 258°
2026-05-05 13:42 19.93951 -98.58596 39566 ft 463 kts 258°
2026-05-05 13:42 19.93279 -98.61907 38647 ft 455 kts 257°
2026-05-05 13:42 19.92838 -98.64077 37981 ft 450 kts 257°
2026-05-05 13:42 19.92181 -98.67299 36953 ft 443 kts 257°
2026-05-05 13:43 19.91531 -98.70482 35990 ft 437 kts 257°
2026-05-05 13:43 19.90742 -98.74642 34797 ft 429 kts 263°
2026-05-05 13:43 19.90521 -98.76723 34166 ft 426 kts 262°
2026-05-05 13:43 19.90178 -98.79834 33175 ft 420 kts 262°
2026-05-05 13:44 19.89836 -98.82890 32223 ft 414 kts 262°
2026-05-05 13:44 19.89498 -98.85907 31308 ft 408 kts 263°
2026-05-05 13:44 19.89168 -98.88885 30418 ft 402 kts 264°
2026-05-05 13:44 19.89130 -98.91831 29362 ft 394 kts 275°
2026-05-05 13:45 19.89328 -98.94733 28323 ft 391 kts 275°
2026-05-05 13:45 19.89532 -98.97564 27373 ft 386 kts 275°
2026-05-05 13:45 19.89727 -99.00395 26432 ft 381 kts 275°
2026-05-05 13:45 19.89909 -99.03194 25519 ft 377 kts 275°
2026-05-05 13:46 19.90092 -99.05954 24627 ft 373 kts 276°
2026-05-05 13:46 19.90278 -99.08687 23731 ft 369 kts 276°
2026-05-05 13:46 19.90461 -99.11387 22727 ft 364 kts 275°
2026-05-05 13:46 19.90639 -99.14059 21743 ft 360 kts 275°
2026-05-05 13:47 19.90813 -99.16700 20781 ft 357 kts 275°
2026-05-05 13:47 19.90988 -99.19319 19846 ft 354 kts 274°
2026-05-05 13:47 19.91159 -99.21899 19350 ft 344 kts 274°
2026-05-05 13:47 19.91326 -99.24426 18963 ft 342 kts 274°
2026-05-05 13:48 19.91490 -99.26915 18548 ft 341 kts 274°
2026-05-05 13:48 19.91516 -99.29410 18185 ft 335 kts 259°
2026-05-05 13:48 19.90959 -99.31754 18137 ft 323 kts 255°
2026-05-05 13:48 19.90412 -99.34083 18126 ft 325 kts 255°
2026-05-05 13:49 19.89853 -99.36397 18097 ft 322 kts 254°
2026-05-05 13:49 19.89019 -99.38595 17924 ft 321 kts 230°
2026-05-05 13:49 19.87361 -99.40067 17737 ft 306 kts 200°
2026-05-05 13:49 19.85346 -99.40616 17470 ft 295 kts 180°
2026-05-05 13:50 19.83352 -99.40413 17214 ft 284 kts 161°
2026-05-05 13:50 19.81585 -99.39569 16976 ft 275 kts 148°
2026-05-05 13:50 19.79949 -99.38562 16700 ft 269 kts 148°
2026-05-05 13:50 19.78312 -99.37623 16457 ft 264 kts 151°
2026-05-05 13:51 19.76679 -99.36741 16180 ft 267 kts 151°
2026-05-05 13:51 19.75026 -99.35841 15870 ft 268 kts 151°
2026-05-05 13:51 19.73393 -99.34935 15513 ft 268 kts 151°
2026-05-05 13:51 19.71754 -99.34027 15240 ft 264 kts 151°
2026-05-05 13:52 19.70138 -99.33135 14993 ft 259 kts 151°
2026-05-05 13:52 19.68528 -99.32248 14728 ft 264 kts 151°
2026-05-05 13:52 19.66902 -99.31350 14505 ft 261 kts 151°
2026-05-05 13:52 19.65306 -99.30470 14283 ft 258 kts 152°
2026-05-05 13:53 19.63696 -99.29581 14073 ft 262 kts 152°
2026-05-05 13:53 19.62089 -99.28695 13833 ft 257 kts 152°
2026-05-05 13:53 19.60505 -99.27822 13603 ft 258 kts 152°
2026-05-05 13:53 19.58898 -99.26937 13384 ft 260 kts 152°
2026-05-05 13:54 19.57314 -99.26064 13150 ft 254 kts 152°
2026-05-05 13:54 19.55749 -99.25202 12954 ft 260 kts 151°
2026-05-05 13:54 19.54152 -99.24323 12729 ft 256 kts 151°
2026-05-05 13:54 19.52555 -99.23525 12483 ft 255 kts 163°
2026-05-05 13:55 19.50764 -99.23248 12076 ft 262 kts 172°
2026-05-05 13:55 19.48958 -99.22987 11737 ft 261 kts 171°
2026-05-05 13:55 19.47165 -99.22714 11403 ft 259 kts 171°
2026-05-05 13:55 19.45390 -99.22449 11111 ft 253 kts 172°
2026-05-05 13:56 19.43673 -99.22199 10802 ft 245 kts 172°
2026-05-05 13:56 19.42012 -99.21955 10513 ft 238 kts 172°
2026-05-05 13:56 19.40393 -99.21716 10225 ft 232 kts 172°
2026-05-05 13:56 19.38868 -99.21304 9919 ft 223 kts 152°
2026-05-05 13:57 19.37805 -99.20182 9633 ft 218 kts 116°
2026-05-05 13:57 19.37648 -99.18651 9464 ft 210 kts 78°
2026-05-05 13:57 19.38013 -99.17174 9292 ft 199 kts 71°
2026-05-05 13:57 19.38603 -99.15933 9124 ft 185 kts 59°
2026-05-05 13:58 19.39244 -99.14795 8938 ft 178 kts 59°
2026-05-05 13:58 19.39874 -99.13671 8716 ft 176 kts 59°
2026-05-05 13:58 19.40487 -99.12562 8463 ft 168 kts 59°
2026-05-05 13:58 19.41071 -99.11518 8156 ft 165 kts 59°
2026-05-05 13:59 19.42217 -99.09458 7607 ft 161 kts 60°
2026-05-05 13:59 19.42785 -99.08435 7383 ft 162 kts 60°
2026-05-05 14:00 19.43859 -99.06517 7309 ft 125 kts 59°
2026-05-05 14:00 19.44165 -99.05976 7306 ft 40 kts 59°
2026-05-05 14:00 19.44270 -99.05831 7308 ft 12 kts 19°
2026-05-05 14:00 19.44347 -99.05821 7309 ft 11 kts
2026-05-05 14:01 19.44380 -99.05839 7309 ft 5 kts 306°
2026-05-05 14:01 19.44373 -99.05896 7309 ft 12 kts 247°
2026-05-05 14:01 19.44329 -99.06011 7309 ft 17 kts 268°
2026-05-05 14:01 19.44361 -99.06128 7295 ft 17 kts 291°
2026-05-05 14:02 19.44405 -99.06243 7309 ft 16 kts 292°
2026-05-05 14:02 19.44448 -99.06352 7309 ft 16 kts 292°
2026-05-05 14:02 19.44431 -99.06456 7309 ft 14 kts 241°
2026-05-05 14:02 19.44381 -99.06547 7309 ft 14 kts 239°
2026-05-05 14:03 19.44330 -99.06636 7309 ft 14 kts 239°
2026-05-05 14:03 19.44279 -99.06726 7309 ft 14 kts 238°
2026-05-05 14:03 19.44221 -99.06751 7309 ft 7 kts 176°
2026-05-05 14:03 19.44175 -99.06774 7309 ft 10 kts 222°
2026-05-05 14:04 19.44122 -99.06856 7309 ft 15 kts 239°
2026-05-05 14:04 19.44070 -99.06948 7309 ft 15 kts 239°
2026-05-05 14:04 19.44018 -99.07040 7309 ft 15 kts 239°
2026-05-05 14:04 19.43967 -99.07133 7309 ft 14 kts 239°
2026-05-05 14:05 19.43916 -99.07223 7309 ft 14 kts 239°
2026-05-05 14:05 19.43865 -99.07314 7309 ft 14 kts 239°
2026-05-05 14:05 19.43813 -99.07405 7309 ft 14 kts 239°
2026-05-05 14:05 19.43761 -99.07496 7309 ft 14 kts 239°
2026-05-05 14:06 19.43711 -99.07586 7309 ft 14 kts 239°
2026-05-05 14:06 19.43660 -99.07677 7309 ft 14 kts 239°
2026-05-05 14:06 19.43609 -99.07767 7309 ft 14 kts 239°
2026-05-05 14:06 19.43558 -99.07857 7309 ft 14 kts 239°
2026-05-05 14:07 19.43506 -99.07947 7309 ft 14 kts 240°
2026-05-05 14:07 19.43516 -99.08021 7309 ft 9 kts 304°
2026-05-05 14:07 19.43541 -99.08044 7309 ft 3 kts 330°
2026-05-05 14:07 19.43550 -99.08050 7309 ft 0 kts 330°